mychiptime.com

Relay Events

06/05/2021

Amarillo, TX

Relay Events

Cycling

Back to 24 Hours in the Canyon - MTB Main


24 Hours in the Canyon - MOUNTAIN BIKE

24 Hours in the Canyon - MOUNTAIN BIKE

Age Group Detail

June 05, 2021


Results By RunFAR Racing Sevices, Inc.
24 Hour MMMM MTB Team
Male 99 and Under
Place Name Team Bib No Gender/Age Laps Time Pace Distance Total Time
1 Cadence/ Move up 133   36   13.1mph 306.00000 23:21:49.55
  Lap 1 45:59.86 11.1mph 8.50000 45:59.86
  Lap 2 34:11.27 14.9mph 8.50000 1:20:11.13
  Lap 3 40:40.90 12.5mph 8.50000 2:00:52.03
  Lap 4 35:33.24 14.3mph 8.50000 2:36:25.27
  Lap 5 36:16.12 14.1mph 8.50000 3:12:41.39
  Lap 6 34:57.57 14.6mph 8.50000 3:47:38.96
  Lap 7 40:28.08 12.6mph 8.50000 4:28:07.04
  Lap 8 37:18.70 13.7mph 8.50000 5:05:25.74
  Lap 9 37:27.27 13.6mph 8.50000 5:42:53.01
  Lap 10 35:32.45 14.3mph 8.50000 6:18:25.46
  Lap 11 41:04.83 12.4mph 8.50000 6:59:30.29
  Lap 12 37:55.57 13.4mph 8.50000 7:37:25.86
  Lap 13 36:40.67 13.9mph 8.50000 8:14:06.53
  Lap 14 35:22.52 14.4mph 8.50000 8:49:29.05
  Lap 15 41:09.85 12.4mph 8.50000 9:30:38.90
  Lap 16 40:32.61 12.6mph 8.50000 10:11:11.51
  Lap 17 39:59.98 12.8mph 8.50000 10:51:11.49
  Lap 18 37:18.77 13.7mph 8.50000 11:28:30.26
  Lap 19 42:26.01 12.0mph 8.50000 12:10:56.27
  Lap 20 42:19.97 12.0mph 8.50000 12:53:16.24
  Lap 21 39:57.64 12.8mph 8.50000 13:33:13.88
  Lap 22 37:50.88 13.5mph 8.50000 14:11:04.76
  Lap 23 42:16.02 12.1mph 8.50000 14:53:20.78
  Lap 24 40:08.37 12.7mph 8.50000 15:33:29.15
  Lap 25 40:24.70 12.6mph 8.50000 16:13:53.85
  Lap 26 37:14.15 13.7mph 8.50000 16:51:08.00
  Lap 27 42:30.32 12.0mph 8.50000 17:33:38.32
  Lap 28 40:29.17 12.6mph 8.50000 18:14:07.49
  Lap 29 37:46.17 13.5mph 8.50000 18:51:53.66
  Lap 30 36:15.07 14.1mph 8.50000 19:28:08.73
  Lap 31 40:14.23 12.7mph 8.50000 20:08:22.96
  Lap 32 38:15.08 13.3mph 8.50000 20:46:38.04
  Lap 33 38:33.86 13.2mph 8.50000 21:25:11.90
  Lap 34 35:40.57 14.3mph 8.50000 22:00:52.47
  Lap 35 41:07.72 12.4mph 8.50000 22:42:00.19
  Lap 36 39:49.36 12.8mph 8.50000 23:21:49.55
 
2 Peyton's Bikes 137   36   13.0mph 306.00000 23:32:16.66
  Lap 1 45:51.31 11.1mph 8.50000 45:51.31
  Lap 2 34:15.70 14.9mph 8.50000 1:20:07.01
  Lap 3 37:13.24 13.7mph 8.50000 1:57:20.25
  Lap 4 40:52.65 12.5mph 8.50000 2:38:12.90
  Lap 5 35:12.86 14.5mph 8.50000 3:13:25.76
  Lap 6 35:04.49 14.5mph 8.50000 3:48:30.25
  Lap 7 37:51.56 13.5mph 8.50000 4:26:21.81
  Lap 8 35:57.98 14.2mph 8.50000 5:02:19.79
  Lap 9 35:16.98 14.5mph 8.50000 5:37:36.77
  Lap 10 35:07.04 14.5mph 8.50000 6:12:43.81
  Lap 11 39:03.41 13.1mph 8.50000 6:51:47.22
  Lap 12 36:31.44 14.0mph 8.50000 7:28:18.66
  Lap 13 36:36.83 13.9mph 8.50000 8:04:55.49
  Lap 14 34:51.94 14.6mph 8.50000 8:39:47.43
  Lap 15 38:03.14 13.4mph 8.50000 9:17:50.57
  Lap 16 38:12.72 13.3mph 8.50000 9:56:03.29
  Lap 17 38:53.93 13.1mph 8.50000 10:34:57.22
  Lap 18 38:57.94 13.1mph 8.50000 11:13:55.16
  Lap 19 41:19.49 12.3mph 8.50000 11:55:14.65
  Lap 20 42:23.54 12.0mph 8.50000 12:37:38.19
  Lap 21 44:14.39 11.5mph 8.50000 13:21:52.58
  Lap 22 46:41.56 10.9mph 8.50000 14:08:34.14
  Lap 23 38:58.76 13.1mph 8.50000 14:47:32.90
  Lap 24 40:51.51 12.5mph 8.50000 15:28:24.41
  Lap 25 43:14.50 11.8mph 8.50000 16:11:38.91
  Lap 26 41:59.97 12.1mph 8.50000 16:53:38.88
  Lap 27 43:24.88 11.7mph 8.50000 17:37:03.76
  Lap 28 43:51.40 11.6mph 8.50000 18:20:55.16
  Lap 29 39:41.60 12.8mph 8.50000 19:00:36.76
  Lap 30 36:08.80 14.1mph 8.50000 19:36:45.56
  Lap 31 39:18.49 13.0mph 8.50000 20:16:04.05
  Lap 32 40:14.44 12.7mph 8.50000 20:56:18.49
  Lap 33 40:34.76 12.6mph 8.50000 21:36:53.25
  Lap 34 37:54.43 13.5mph 8.50000 22:14:47.68
  Lap 35 39:04.21 13.1mph 8.50000 22:53:51.89
  Lap 36 38:24.77 13.3mph 8.50000 23:32:16.66
 
3 Heart of Texas Jr. Cycling 146   35   12.6mph 297.50000 23:36:08.40
  Lap 1 51:16.11 9.9mph 8.50000 51:16.11
  Lap 2 35:47.51 14.2mph 8.50000 1:27:03.62
  Lap 3 39:58.18 12.8mph 8.50000 2:07:01.80
  Lap 4 39:32.84 12.9mph 8.50000 2:46:34.64
  Lap 5 38:41.30 13.2mph 8.50000 3:25:15.94
  Lap 6 36:09.84 14.1mph 8.50000 4:01:25.78
  Lap 7 39:03.66 13.1mph 8.50000 4:40:29.44
  Lap 8 37:31.66 13.6mph 8.50000 5:18:01.10
  Lap 9 40:22.73 12.6mph 8.50000 5:58:23.83
  Lap 10 36:40.39 13.9mph 8.50000 6:35:04.22
  Lap 11 38:32.55 13.2mph 8.50000 7:13:36.77
  Lap 12 36:55.29 13.8mph 8.50000 7:50:32.06
  Lap 13 39:21.78 13.0mph 8.50000 8:29:53.84
  Lap 14 34:59.44 14.6mph 8.50000 9:04:53.28
  Lap 15 40:32.94 12.6mph 8.50000 9:45:26.22
  Lap 16 39:33.90 12.9mph 8.50000 10:25:00.12
  Lap 17 43:07.11 11.8mph 8.50000 11:08:07.23
  Lap 18 46:27.70 11.0mph 8.50000 11:54:34.93
  Lap 19 39:48.24 12.8mph 8.50000 12:34:23.17
  Lap 20 40:13.61 12.7mph 8.50000 13:14:36.78
  Lap 21 44:42.75 11.4mph 8.50000 13:59:19.53
  Lap 22 48:13.58 10.6mph 8.50000 14:47:33.11
  Lap 23 40:22.88 12.6mph 8.50000 15:27:55.99
  Lap 24 41:59.89 12.1mph 8.50000 16:09:55.88
  Lap 25 44:18.80 11.5mph 8.50000 16:54:14.68
  Lap 26 39:39.01 12.9mph 8.50000 17:33:53.69
  Lap 27 45:14.25 11.3mph 8.50000 18:19:07.94
  Lap 28 40:52.15 12.5mph 8.50000 19:00:00.09
  Lap 29 40:50.16 12.5mph 8.50000 19:40:50.25
  Lap 30 39:35.98 12.9mph 8.50000 20:20:26.23
  Lap 31 39:01.85 13.1mph 8.50000 20:59:28.08
  Lap 32 39:07.66 13.0mph 8.50000 21:38:35.74
  Lap 33 40:57.80 12.5mph 8.50000 22:19:33.54
  Lap 34 37:15.56 13.7mph 8.50000 22:56:49.10
  Lap 35 39:19.30 13.0mph 8.50000 23:36:08.40
 
4 Fusion 136   31   11.4mph 263.50000 23:10:30.76
  Lap 1 52:41.60 9.68mph 8.50000 52:41.60
  Lap 2 39:21.92 13.0mph 8.50000 1:32:03.52
  Lap 3 36:06.29 14.1mph 8.50000 2:08:09.81
  Lap 4 40:30.23 12.6mph 8.50000 2:48:40.04
  Lap 5 41:46.54 12.2mph 8.50000 3:30:26.58
  Lap 6 40:07.72 12.7mph 8.50000 4:10:34.30
  Lap 7 36:39.61 13.9mph 8.50000 4:47:13.91
  Lap 8 42:30.11 12.0mph 8.50000 5:29:44.02
  Lap 9 43:47.67 11.6mph 8.50000 6:13:31.69
  Lap 10 41:31.63 12.3mph 8.50000 6:55:03.32
  Lap 11 36:36.92 13.9mph 8.50000 7:31:40.24
  Lap 12 42:05.86 12.1mph 8.50000 8:13:46.10
  Lap 13 43:45.14 11.7mph 8.50000 8:57:31.24
  Lap 14 43:20.26 11.8mph 8.50000 9:40:51.50
  Lap 15 38:15.82 13.3mph 8.50000 10:19:07.32
  Lap 16 48:56.14 10.4mph 8.50000 11:08:03.46
  Lap 17 49:45.47 10.2mph 8.50000 11:57:48.93
  Lap 18 46:05.75 11.1mph 8.50000 12:43:54.68
  Lap 19 41:20.43 12.3mph 8.50000 13:25:15.11
  Lap 20 1:32:44.89 5.50mph 8.50000 14:58:00.00
  Lap 21 48:44.15 10.5mph 8.50000 15:46:44.15
  Lap 22 49:08.75 10.4mph 8.50000 16:35:52.90
  Lap 23 39:59.75 12.8mph 8.50000 17:15:52.65
  Lap 24 52:01.28 9.80mph 8.50000 18:07:53.93
  Lap 25 43:55.49 11.6mph 8.50000 18:51:49.42
  Lap 26 45:10.58 11.3mph 8.50000 19:37:00.00
  Lap 27 37:34.55 13.6mph 8.50000 20:14:34.55
  Lap 28 47:33.11 10.7mph 8.50000 21:02:07.66
  Lap 29 44:28.41 11.5mph 8.50000 21:46:36.07
  Lap 30 45:03.00 11.3mph 8.50000 22:31:39.07
  Lap 31 38:51.69 13.1mph 8.50000 23:10:30.76
 
5 Worst Pace Scenario 142   30   11.2mph 255.00000 22:50:37.97
  Lap 1 48:00.00 10.6mph 8.50000 48:00.00
  Lap 2 44:07.13 11.6mph 8.50000 1:32:07.13
  Lap 3 44:08.67 11.6mph 8.50000 2:16:15.80
  Lap 4 45:58.83 11.1mph 8.50000 3:02:14.63
  Lap 5 39:07.76 13.0mph 8.50000 3:41:22.39
  Lap 6 47:46.74 10.7mph 8.50000 4:29:09.13
  Lap 7 46:46.99 10.9mph 8.50000 5:15:56.12
  Lap 8 46:03.33 11.1mph 8.50000 6:01:59.45
  Lap 9 38:52.29 13.1mph 8.50000 6:40:51.74
  Lap 10 45:53.34 11.1mph 8.50000 7:26:45.08
  Lap 11 46:18.52 11.0mph 8.50000 8:13:03.60
  Lap 12 47:24.71 10.8mph 8.50000 9:00:28.31
  Lap 13 39:02.39 13.1mph 8.50000 9:39:30.70
  Lap 14 48:24.18 10.5mph 8.50000 10:27:54.88
  Lap 15 48:23.66 10.5mph 8.50000 11:16:18.54
  Lap 16 51:20.32 9.93mph 8.50000 12:07:38.86
  Lap 17 37:59.76 13.4mph 8.50000 12:45:38.62
  Lap 18 49:34.59 10.3mph 8.50000 13:35:13.21
  Lap 19 49:29.44 10.3mph 8.50000 14:24:42.65
  Lap 20 53:59.45 9.45mph 8.50000 15:18:42.10
  Lap 21 40:07.94 12.7mph 8.50000 15:58:50.04
  Lap 22 49:17.46 10.3mph 8.50000 16:48:07.50
  Lap 23 48:50.46 10.4mph 8.50000 17:36:57.96
  Lap 24 49:22.45 10.3mph 8.50000 18:26:20.41
  Lap 25 37:53.26 13.5mph 8.50000 19:04:13.67
  Lap 26 45:03.21 11.3mph 8.50000 19:49:16.88
  Lap 27 44:27.61 11.5mph 8.50000 20:33:44.49
  Lap 28 49:16.99 10.3mph 8.50000 21:23:01.48
  Lap 29 39:55.20 12.8mph 8.50000 22:02:56.68
  Lap 30 47:41.29 10.7mph 8.50000 22:50:37.97
 
6 Gears and Beers 132   30   10.7mph 255.00000 23:50:34.55
  Lap 1 52:30.30 9.71mph 8.50000 52:30.30
  Lap 2 44:53.20 11.4mph 8.50000 1:37:23.50
  Lap 3 55:11.12 9.24mph 8.50000 2:32:34.62
  Lap 4 46:12.29 11.0mph 8.50000 3:18:46.91
  Lap 5 40:25.12 12.6mph 8.50000 3:59:12.03
  Lap 6 45:25.88 11.2mph 8.50000 4:44:37.91
  Lap 7 57:14.62 8.91mph 8.50000 5:41:52.53
  Lap 8 39:00.49 13.1mph 8.50000 6:20:53.02
  Lap 9 40:05.94 12.7mph 8.50000 7:00:58.96
  Lap 10 45:09.39 11.3mph 8.50000 7:46:08.35
  Lap 11 56:32.99 9.02mph 8.50000 8:42:41.34
  Lap 12 40:12.16 12.7mph 8.50000 9:22:53.50
  Lap 13 42:51.34 11.9mph 8.50000 10:05:44.84
  Lap 14 45:09.28 11.3mph 8.50000 10:50:54.12
  Lap 15 51:30.13 9.90mph 8.50000 11:42:24.25
  Lap 16 55:11.70 9.24mph 8.50000 12:37:35.95
  Lap 17 1:09:59.76 7.29mph 8.50000 13:47:35.71
  Lap 18 43:39.70 11.7mph 8.50000 14:31:15.41
  Lap 19 43:32.65 11.7mph 8.50000 15:14:48.06
  Lap 20 48:45.51 10.5mph 8.50000 16:03:33.57
  Lap 21 47:17.33 10.8mph 8.50000 16:50:50.90
  Lap 22 51:49.79 9.84mph 8.50000 17:42:40.69
  Lap 23 52:56.94 9.63mph 8.50000 18:35:37.63
  Lap 24 1:02:10.66 8.20mph 8.50000 19:37:48.29
  Lap 25 41:44.95 12.2mph 8.50000 20:19:33.24
  Lap 26 41:16.90 12.4mph 8.50000 21:00:50.14
  Lap 27 40:58.35 12.4mph 8.50000 21:41:48.49
  Lap 28 46:48.17 10.9mph 8.50000 22:28:36.66
  Lap 29 39:16.11 13.0mph 8.50000 23:07:52.77
  Lap 30 42:41.78 11.9mph 8.50000 23:50:34.55
 
7 Mayhem Mustache Rides 147   28   10.1mph 238.00000 23:30:07.06
  Lap 1 56:12.39 9.07mph 8.50000 56:12.39
  Lap 2 48:01.95 10.6mph 8.50000 1:44:14.34
  Lap 3 53:22.66 9.55mph 8.50000 2:37:37.00
  Lap 4 39:46.30 12.8mph 8.50000 3:17:23.30
  Lap 5 45:27.04 11.2mph 8.50000 4:02:50.34
  Lap 6 49:46.78 10.2mph 8.50000 4:52:37.12
  Lap 7 42:32.24 12.0mph 8.50000 5:35:09.36
  Lap 8 47:43.16 10.7mph 8.50000 6:22:52.52
  Lap 9 47:14.85 10.8mph 8.50000 7:10:07.37
  Lap 10 41:50.38 12.2mph 8.50000 7:51:57.75
  Lap 11 47:11.86 10.8mph 8.50000 8:39:09.61
  Lap 12 49:27.75 10.3mph 8.50000 9:28:37.36
  Lap 13 44:22.19 11.5mph 8.50000 10:12:59.55
  Lap 14 1:00:16.01 8.46mph 8.50000 11:13:15.56
  Lap 15 1:00:49.99 8.38mph 8.50000 12:14:05.55
  Lap 16 45:33.45 11.2mph 8.50000 12:59:39.00
  Lap 17 47:18.17 10.8mph 8.50000 13:46:57.17
  Lap 18 55:25.68 9.20mph 8.50000 14:42:22.85
  Lap 19 1:04:31.92 7.90mph 8.50000 15:46:54.77
  Lap 20 59:07.11 8.63mph 8.50000 16:46:01.88
  Lap 21 1:02:27.59 8.17mph 8.50000 17:48:29.47
  Lap 22 46:23.83 11.0mph 8.50000 18:34:53.30
  Lap 23 52:55.71 9.64mph 8.50000 19:27:49.01
  Lap 24 51:13.15 10.0mph 8.50000 20:19:02.16
  Lap 25 45:17.98 11.3mph 8.50000 21:04:20.14
  Lap 26 50:16.63 10.1mph 8.50000 21:54:36.77
  Lap 27 48:23.64 10.5mph 8.50000 22:43:00.41
  Lap 28 47:06.65 10.8mph 8.50000 23:30:07.06
 
8 Wanna Bes 148   25   9.04mph 212.50000 23:29:50.09
  Lap 1 1:11:13.30 7.16mph 8.50000 1:11:13.30
  Lap 2 46:21.58 11.0mph 8.50000 1:57:34.88
  Lap 3 53:08.25 9.60mph 8.50000 2:50:43.13
  Lap 4 47:12.27 10.8mph 8.50000 3:37:55.40
  Lap 5 56:34.76 9.01mph 8.50000 4:34:30.16
  Lap 6 45:05.60 11.3mph 8.50000 5:19:35.76
  Lap 7 1:15:10.94 6.78mph 8.50000 6:34:46.70
  Lap 8 47:15.01 10.8mph 8.50000 7:22:01.71
  Lap 9 58:15.70 8.75mph 8.50000 8:20:17.41
  Lap 10 45:37.49 11.2mph 8.50000 9:05:54.90
  Lap 11 59:47.34 8.53mph 8.50000 10:05:42.24
  Lap 12 50:06.02 10.2mph 8.50000 10:55:48.26
  Lap 13 1:00:33.45 8.42mph 8.50000 11:56:21.71
  Lap 14 49:31.00 10.3mph 8.50000 12:45:52.71
  Lap 15 1:28:34.68 5.76mph 8.50000 14:14:27.39
  Lap 16 51:35.07 9.89mph 8.50000 15:06:02.46
  Lap 17 1:11:46.37 7.11mph 8.50000 16:17:48.83
  Lap 18 54:20.77 9.38mph 8.50000 17:12:09.60
  Lap 19 1:02:05.57 8.21mph 8.50000 18:14:15.17
  Lap 20 51:26.37 9.91mph 8.50000 19:05:41.54
  Lap 21 58:46.76 8.68mph 8.50000 20:04:28.30
  Lap 22 47:21.52 10.8mph 8.50000 20:51:49.82
  Lap 23 53:30.30 9.53mph 8.50000 21:45:20.12
  Lap 24 46:19.10 11.0mph 8.50000 22:31:39.22
  Lap 25 58:10.87 8.77mph 8.50000 23:29:50.09
 
9 Team Aero 141   25   9.01mph 212.50000 23:35:23.29
  Lap 1 54:23.42 9.38mph 8.50000 54:23.42
  Lap 2 58:02.56 8.79mph 8.50000 1:52:25.98
  Lap 3 54:41.37 9.33mph 8.50000 2:47:07.35
  Lap 4 59:02.63 8.64mph 8.50000 3:46:09.98
  Lap 5 43:35.76 11.7mph 8.50000 4:29:45.74
  Lap 6 55:43.09 9.15mph 8.50000 5:25:28.83
  Lap 7 54:24.69 9.37mph 8.50000 6:19:53.52
  Lap 8 59:05.41 8.63mph 8.50000 7:18:58.93
  Lap 9 43:09.69 11.8mph 8.50000 8:02:08.62
  Lap 10 54:54.53 9.29mph 8.50000 8:57:03.15
  Lap 11 54:08.22 9.42mph 8.50000 9:51:11.37
  Lap 12 1:10:39.57 7.22mph 8.50000 11:01:50.94
  Lap 13 47:05.21 10.8mph 8.50000 11:48:56.15
  Lap 14 1:06:13.45 7.70mph 8.50000 12:55:09.60
  Lap 15 1:06:25.51 7.68mph 8.50000 14:01:35.11
  Lap 16 1:17:18.95 6.60mph 8.50000 15:18:54.06
  Lap 17 46:36.48 10.9mph 8.50000 16:05:30.54
  Lap 18 1:08:08.59 7.48mph 8.50000 17:13:39.13
  Lap 19 1:07:49.17 7.52mph 8.50000 18:21:28.30
  Lap 20 59:38.15 8.55mph 8.50000 19:21:06.45
  Lap 21 42:20.63 12.0mph 8.50000 20:03:27.08
  Lap 22 59:03.33 8.64mph 8.50000 21:02:30.41
  Lap 23 50:22.97 10.1mph 8.50000 21:52:53.38
  Lap 24 58:17.36 8.75mph 8.50000 22:51:10.74
  Lap 25 44:12.55 11.5mph 8.50000 23:35:23.29
 
10 BurninUpTheTrails 134   24   8.65mph 204.00000 23:35:13.43
  Lap 1 1:03:20.85 8.05mph 8.50000 1:03:20.85
  Lap 2 58:58.22 8.65mph 8.50000 2:02:19.07
  Lap 3 49:47.77 10.2mph 8.50000 2:52:06.84
  Lap 4 1:01:46.71 8.26mph 8.50000 3:53:53.55
  Lap 5 46:31.10 11.0mph 8.50000 4:40:24.65
  Lap 6 58:45.38 8.68mph 8.50000 5:39:10.03
  Lap 7 52:08.65 9.78mph 8.50000 6:31:18.68
  Lap 8 1:02:50.56 8.12mph 8.50000 7:34:09.24
  Lap 9 44:56.03 11.4mph 8.50000 8:19:05.27
  Lap 10 1:00:09.21 8.48mph 8.50000 9:19:14.48
  Lap 11 52:25.41 9.73mph 8.50000 10:11:39.89
  Lap 12 1:07:40.97 7.54mph 8.50000 11:19:20.86
  Lap 13 49:37.21 10.3mph 8.50000 12:08:58.07
  Lap 14 1:09:28.89 7.34mph 8.50000 13:18:26.96
  Lap 15 54:16.12 9.40mph 8.50000 14:12:43.08
  Lap 16 1:15:38.66 6.74mph 8.50000 15:28:21.74
  Lap 17 54:35.92 9.34mph 8.50000 16:22:57.66
  Lap 18 1:10:43.79 7.21mph 8.50000 17:33:41.45
  Lap 19 59:42.86 8.54mph 8.50000 18:33:24.31
  Lap 20 1:03:30.16 8.03mph 8.50000 19:36:54.47
  Lap 21 45:27.65 11.2mph 8.50000 20:22:22.12
  Lap 22 1:14:04.13 6.89mph 8.50000 21:36:26.25
  Lap 23 52:37.81 9.69mph 8.50000 22:29:04.06
  Lap 24 1:06:09.37 7.71mph 8.50000 23:35:13.43
 
11 Team MSMTB 145   23   8.39mph 195.50000 23:18:41.79
  Lap 1 51:39.02 9.87mph 8.50000 51:39.02
  Lap 2 37:52.79 13.5mph 8.50000 1:29:31.81
  Lap 3 37:31.10 13.6mph 8.50000 2:07:02.91
  Lap 4 40:36.84 12.6mph 8.50000 2:47:39.75
  Lap 5 39:53.50 12.8mph 8.50000 3:27:33.25
  Lap 6 38:58.41 13.1mph 8.50000 4:06:31.66
  Lap 7 40:33.16 12.6mph 8.50000 4:47:04.82
  Lap 8 39:34.14 12.9mph 8.50000 5:26:38.96
  Lap 9 38:44.78 13.2mph 8.50000 6:05:23.74
  Lap 10 41:37.85 12.3mph 8.50000 6:47:01.59
  Lap 11 38:37.37 13.2mph 8.50000 7:25:38.96
  Lap 12 38:37.08 13.2mph 8.50000 8:04:16.04
  Lap 13 40:24.54 12.6mph 8.50000 8:44:40.58
  Lap 14 39:05.49 13.0mph 8.50000 9:23:46.07
  Lap 15 47:20.60 10.8mph 8.50000 10:11:06.67
  Lap 16 48:51.94 10.4mph 8.50000 10:59:58.61
  Lap 17 42:11.78 12.1mph 8.50000 11:42:10.39
  Lap 18 45:23.02 11.2mph 8.50000 12:27:33.41
  Lap 19 7:41:00.87 1.11mph 8.50000 20:08:34.28
  Lap 20 40:29.48 12.6mph 8.50000 20:49:03.76
  Lap 21 42:48.40 11.9mph 8.50000 21:31:52.16
  Lap 22 58:38.80 8.70mph 8.50000 22:30:30.96
  Lap 23 48:10.83 10.6mph 8.50000 23:18:41.79
 
12 Team Square Campfire (TWCT) 143   23   8.25mph 195.50000 23:41:55.31
  Lap 1 59:03.15 8.64mph 8.50000 59:03.15
  Lap 2 42:04.15 12.1mph 8.50000 1:41:07.30
  Lap 3 45:52.00 11.1mph 8.50000 2:26:59.30
  Lap 4 46:18.18 11.0mph 8.50000 3:13:17.48
  Lap 5 50:29.11 10.1mph 8.50000 4:03:46.59
  Lap 6 42:03.11 12.1mph 8.50000 4:45:49.70
  Lap 7 51:14.01 10.0mph 8.50000 5:37:03.71
  Lap 8 50:48.59 10.0mph 8.50000 6:27:52.30
  Lap 9 51:38.16 9.88mph 8.50000 7:19:30.46
  Lap 10 41:47.64 12.2mph 8.50000 8:01:18.10
  Lap 11 49:49.94 10.2mph 8.50000 8:51:08.04
  Lap 12 57:24.94 8.88mph 8.50000 9:48:32.98
  Lap 13 1:06:52.10 7.63mph 8.50000 10:55:25.08
  Lap 14 48:45.65 10.5mph 8.50000 11:44:10.73
  Lap 15 1:02:17.04 8.19mph 8.50000 12:46:27.77
  Lap 16 2:00:19.49 4.24mph 8.50000 14:46:47.26
  Lap 17 57:27.13 8.88mph 8.50000 15:44:14.39
  Lap 18 2:15:34.01 3.76mph 8.50000 17:59:48.40
  Lap 19 1:16:53.68 6.63mph 8.50000 19:16:42.08
  Lap 20 1:38:42.55 5.17mph 8.50000 20:55:24.63
  Lap 21 1:15:42.79 6.74mph 8.50000 22:11:07.42
  Lap 22 45:19.00 11.3mph 8.50000 22:56:26.42
  Lap 23 45:28.89 11.2mph 8.50000 23:41:55.31
 
13 Woofus Cycling 140   20   7.17mph 170.00000 23:41:47.99
  Lap 1 59:09.22 8.62mph 8.50000 59:09.22
  Lap 2 46:48.72 10.9mph 8.50000 1:45:57.94
  Lap 3 56:36.95 9.01mph 8.50000 2:42:34.89
  Lap 4 49:43.40 10.3mph 8.50000 3:32:18.29
  Lap 5 47:55.43 10.6mph 8.50000 4:20:13.72
  Lap 6 53:24.60 9.55mph 8.50000 5:13:38.32
  Lap 7 58:22.18 8.74mph 8.50000 6:12:00.50
  Lap 8 1:23:18.99 6.12mph 8.50000 7:35:19.49
  Lap 9 45:54.02 11.1mph 8.50000 8:21:13.51
  Lap 10 1:05:51.60 7.74mph 8.50000 9:27:05.11
  Lap 11 1:05:54.41 7.74mph 8.50000 10:32:59.52
  Lap 12 1:03:43.05 8.00mph 8.50000 11:36:42.57
  Lap 13 53:26.35 9.54mph 8.50000 12:30:08.92
  Lap 14 1:10:34.63 7.23mph 8.50000 13:40:43.55
  Lap 15 55:19.48 9.22mph 8.50000 14:36:03.03
  Lap 16 1:48:04.50 4.72mph 8.50000 16:24:07.53
  Lap 17 4:39:05.62 1.83mph 8.50000 21:03:13.15
  Lap 18 52:12.70 9.77mph 8.50000 21:55:25.85
  Lap 19 54:34.15 9.35mph 8.50000 22:50:00.00
  Lap 20 51:47.99 9.85mph 8.50000 23:41:47.99
 
14 3 Jerks & a Squirt 144   17   6.55mph 144.50000 22:03:54.40
  Lap 1 1:06:24.87 7.68mph 8.50000 1:06:24.87
  Lap 2 1:00:55.86 8.37mph 8.50000 2:07:20.73
  Lap 3 1:03:16.05 8.06mph 8.50000 3:10:36.78
  Lap 4 59:51.26 8.52mph 8.50000 4:10:28.04
  Lap 5 1:07:06.77 7.60mph 8.50000 5:17:34.81
  Lap 6 1:01:26.51 8.30mph 8.50000 6:19:01.32
  Lap 7 1:04:01.43 7.97mph 8.50000 7:23:02.75
  Lap 8 1:02:56.94 8.10mph 8.50000 8:25:59.69
  Lap 9 52:09.06 9.78mph 8.50000 9:18:08.75
  Lap 10 1:05:15.40 7.82mph 8.50000 10:23:24.15
  Lap 11 1:07:15.99 7.58mph 8.50000 11:30:40.14
  Lap 12 1:10:21.15 7.25mph 8.50000 12:41:01.29
  Lap 13 55:44.61 9.15mph 8.50000 13:36:45.90
  Lap 14 5:33:15.94 1.53mph 8.50000 19:10:01.84
  Lap 15 1:05:32.42 7.78mph 8.50000 20:15:34.26
  Lap 16 52:02.50 9.80mph 8.50000 21:07:36.76
  Lap 17 56:17.64 9.06mph 8.50000 22:03:54.40
 
15 Team Warm Up TBirds 139   17   6.42mph 144.50000 22:31:05.54
  Lap 1 51:51.31 9.84mph 8.50000 51:51.31
  Lap 2 44:48.32 11.4mph 8.50000 1:36:39.63
  Lap 3 50:56.34 10.0mph 8.50000 2:27:35.97
  Lap 4 42:01.71 12.1mph 8.50000 3:09:37.68
  Lap 5 41:35.43 12.3mph 8.50000 3:51:13.11
  Lap 6 45:01.28 11.3mph 8.50000 4:36:14.39
  Lap 7 50:30.69 10.1mph 8.50000 5:26:45.08
  Lap 8 43:10.82 11.8mph 8.50000 6:09:55.90
  Lap 9 49:44.59 10.3mph 8.50000 6:59:40.49
  Lap 10 48:23.72 10.5mph 8.50000 7:48:04.21
  Lap 11 49:24.77 10.3mph 8.50000 8:37:28.98
  Lap 12 44:19.25 11.5mph 8.50000 9:21:48.23
  Lap 13 49:36.49 10.3mph 8.50000 10:11:24.72
  Lap 14 9:53:44.81 0.86mph 8.50000 20:05:09.53
  Lap 15 43:40.03 11.7mph 8.50000 20:48:49.56
  Lap 16 52:40.12 9.68mph 8.50000 21:41:29.68
  Lap 17 49:35.86 10.3mph 8.50000 22:31:05.54
 
16 Dirt Disciples 135   12   8.73mph 102.00000 11:40:54.85
  Lap 1 1:08:17.22 7.47mph 8.50000 1:08:17.22
  Lap 2 1:03:32.66 8.03mph 8.50000 2:11:49.88
  Lap 3 44:28.75 11.5mph 8.50000 2:56:18.63
  Lap 4 47:04.35 10.8mph 8.50000 3:43:22.98
  Lap 5 51:07.15 10.0mph 8.50000 4:34:30.13
  Lap 6 48:48.01 10.5mph 8.50000 5:23:18.14
  Lap 7 49:04.02 10.4mph 8.50000 6:12:22.16
  Lap 8 47:03.43 10.8mph 8.50000 6:59:25.59
  Lap 9 58:23.75 8.73mph 8.50000 7:57:49.34
  Lap 10 45:13.80 11.3mph 8.50000 8:43:03.14
  Lap 11 1:44:20.24 4.89mph 8.50000 10:27:23.38
  Lap 12 1:13:31.47 6.94mph 8.50000 11:40:54.85
 
17 Aggressively Average 138   12   7.38mph 102.00000 13:48:50.00
  Lap 1 1:18:11.50 6.52mph 8.50000 1:18:11.50
  Lap 2 53:36.35 9.51mph 8.50000 2:11:47.85
  Lap 3 44:03.81 11.6mph 8.50000 2:55:51.66
  Lap 4 1:09:35.80 7.33mph 8.50000 4:05:27.46
  Lap 5 1:00:24.49 8.44mph 8.50000 5:05:51.95
  Lap 6 1:31:45.26 5.56mph 8.50000 6:37:37.21
  Lap 7 44:36.48 11.4mph 8.50000 7:22:13.69
  Lap 8 1:10:37.72 7.22mph 8.50000 8:32:51.41
  Lap 9 56:02.48 9.10mph 8.50000 9:28:53.89
  Lap 10 1:04:40.95 7.88mph 8.50000 10:33:34.84
  Lap 11 50:00.98 10.2mph 8.50000 11:23:35.82
  Lap 12 2:25:14.18 3.51mph 8.50000 13:48:50.00
24 Hour MMMM SS MTB Team
Male 99 and Under
Place Name Team Bib No Gender/Age Laps Time Pace Distance Total Time
1 Bitter Zen 105   36   12.8mph 306.00000 23:55:56.22
  Lap 1 46:58.21 10.9mph 8.50000 46:58.21
  Lap 2 33:22.80 15.3mph 8.50000 1:20:21.01
  Lap 3 35:14.20 14.5mph 8.50000 1:55:35.21
  Lap 4 41:19.02 12.3mph 8.50000 2:36:54.23
  Lap 5 41:57.29 12.2mph 8.50000 3:18:51.52
  Lap 6 45:06.67 11.3mph 8.50000 4:03:58.19
  Lap 7 36:03.71 14.1mph 8.50000 4:40:01.90
  Lap 8 36:58.53 13.8mph 8.50000 5:17:00.43
  Lap 9 34:01.02 15.0mph 8.50000 5:51:01.45
  Lap 10 35:00.23 14.6mph 8.50000 6:26:01.68
  Lap 11 40:40.00 12.5mph 8.50000 7:06:41.68
  Lap 12 41:56.25 12.2mph 8.50000 7:48:37.93
  Lap 13 41:13.69 12.4mph 8.50000 8:29:51.62
  Lap 14 47:17.83 10.8mph 8.50000 9:17:09.45
  Lap 15 38:54.54 13.1mph 8.50000 9:56:03.99
  Lap 16 39:26.71 12.9mph 8.50000 10:35:30.70
  Lap 17 40:17.30 12.7mph 8.50000 11:15:48.00
  Lap 18 36:37.57 13.9mph 8.50000 11:52:25.57
  Lap 19 36:48.57 13.9mph 8.50000 12:29:14.14
  Lap 20 37:15.80 13.7mph 8.50000 13:06:29.94
  Lap 21 49:32.53 10.3mph 8.50000 13:56:02.47
  Lap 22 47:10.58 10.8mph 8.50000 14:43:13.05
  Lap 23 52:53.74 9.64mph 8.50000 15:36:06.79
  Lap 24 41:25.50 12.3mph 8.50000 16:17:32.29
  Lap 25 47:24.90 10.8mph 8.50000 17:04:57.19
  Lap 26 41:24.18 12.3mph 8.50000 17:46:21.37
  Lap 27 35:54.00 14.2mph 8.50000 18:22:15.37
  Lap 28 35:45.54 14.3mph 8.50000 18:58:00.91
  Lap 29 39:30.92 12.9mph 8.50000 19:37:31.83
  Lap 30 43:22.18 11.8mph 8.50000 20:20:54.01
  Lap 31 35:37.06 14.3mph 8.50000 20:56:31.07
  Lap 32 33:28.12 15.2mph 8.50000 21:29:59.19
  Lap 33 38:59.61 13.1mph 8.50000 22:08:58.80
  Lap 34 35:38.79 14.3mph 8.50000 22:44:37.59
  Lap 35 34:53.76 14.6mph 8.50000 23:19:31.35
  Lap 36 36:24.87 14.0mph 8.50000 23:55:56.22
 
2 JJJR TeamWarmupCyclingTeam 106   21   7.59mph 178.50000 23:31:31.18
  Lap 1 1:01:25.78 8.30mph 8.50000 1:01:25.78
  Lap 2 43:46.87 11.6mph 8.50000 1:45:12.65
  Lap 3 41:41.25 12.2mph 8.50000 2:26:53.90
  Lap 4 41:54.04 12.2mph 8.50000 3:08:47.94
  Lap 5 45:46.55 11.1mph 8.50000 3:54:34.49
  Lap 6 43:01.42 11.9mph 8.50000 4:37:35.91
  Lap 7 41:41.57 12.2mph 8.50000 5:19:17.48
  Lap 8 42:05.82 12.1mph 8.50000 6:01:23.30
  Lap 9 45:54.05 11.1mph 8.50000 6:47:17.35
  Lap 10 46:12.37 11.0mph 8.50000 7:33:29.72
  Lap 11 47:03.03 10.8mph 8.50000 8:20:32.75
  Lap 12 1:09:53.72 7.30mph 8.50000 9:30:26.47
  Lap 13 51:35.60 9.88mph 8.50000 10:22:02.07
  Lap 14 58:20.07 8.74mph 8.50000 11:20:22.14
  Lap 15 7:21:13.04 1.16mph 8.50000 18:41:35.18
  Lap 16 55:50.82 9.13mph 8.50000 19:37:26.00
  Lap 17 48:51.50 10.4mph 8.50000 20:26:17.50
  Lap 18 38:50.39 13.1mph 8.50000 21:05:07.89
  Lap 19 43:05.30 11.8mph 8.50000 21:48:13.19
  Lap 20 46:14.62 11.0mph 8.50000 22:34:27.81
  Lap 21 57:03.37 8.94mph 8.50000 23:31:31.18
24 Hour FFFF MTB Team
Female 99 and Under
Place Name Team Bib No Gender/Age Laps Time Pace Distance Total Time
1 Boyd's Equipment 130   32   11.5mph 272.00000 23:35:58.06
  Lap 1 49:44.72 10.3mph 8.50000 49:44.72
  Lap 2 40:25.96 12.6mph 8.50000 1:30:10.68
  Lap 3 42:26.91 12.0mph 8.50000 2:12:37.59
  Lap 4 53:33.70 9.52mph 8.50000 3:06:11.29
  Lap 5 39:43.07 12.8mph 8.50000 3:45:54.36
  Lap 6 41:33.22 12.3mph 8.50000 4:27:27.58
  Lap 7 42:32.42 12.0mph 8.50000 5:10:00.00
  Lap 8 41:50.21 12.2mph 8.50000 5:51:50.21
  Lap 9 39:48.01 12.8mph 8.50000 6:31:38.22
  Lap 10 41:35.70 12.3mph 8.50000 7:13:13.92
  Lap 11 44:30.95 11.5mph 8.50000 7:57:44.87
  Lap 12 40:31.16 12.6mph 8.50000 8:38:16.03
  Lap 13 40:33.82 12.6mph 8.50000 9:18:49.85
  Lap 14 44:20.95 11.5mph 8.50000 10:03:10.80
  Lap 15 49:03.28 10.4mph 8.50000 10:52:14.08
  Lap 16 45:17.41 11.3mph 8.50000 11:37:31.49
  Lap 17 48:28.64 10.5mph 8.50000 12:26:00.13
  Lap 18 45:31.38 11.2mph 8.50000 13:11:31.51
  Lap 19 49:53.95 10.2mph 8.50000 14:01:25.46
  Lap 20 48:40.90 10.5mph 8.50000 14:50:06.36
  Lap 21 46:11.79 11.0mph 8.50000 15:36:18.15
  Lap 22 47:09.03 10.8mph 8.50000 16:23:27.18
  Lap 23 50:42.48 10.1mph 8.50000 17:14:09.66
  Lap 24 47:48.55 10.7mph 8.50000 18:01:58.21
  Lap 25 40:56.12 12.5mph 8.50000 18:42:54.33
  Lap 26 43:03.23 11.8mph 8.50000 19:25:57.56
  Lap 27 44:26.97 11.5mph 8.50000 20:10:24.53
  Lap 28 40:56.60 12.5mph 8.50000 20:51:21.13
  Lap 29 39:12.81 13.0mph 8.50000 21:30:33.94
  Lap 30 43:50.09 11.6mph 8.50000 22:14:24.03
  Lap 31 41:21.53 12.3mph 8.50000 22:55:45.56
  Lap 32 40:12.50 12.7mph 8.50000 23:35:58.06
 
2 Panhandle Red Dirt Divas Sunday Sisters -Team ANB 131   26   9.30mph 221.00000 23:46:30.94
  Lap 1 1:00:24.60 8.44mph 8.50000 1:00:24.60
  Lap 2 59:35.40 8.56mph 8.50000 2:00:00.00
  Lap 3 43:07.45 11.8mph 8.50000 2:43:07.45
  Lap 4 51:10.04 10.0mph 8.50000 3:34:17.49
  Lap 5 47:44.80 10.7mph 8.50000 4:22:02.29
  Lap 6 54:04.38 9.43mph 8.50000 5:16:06.67
  Lap 7 50:10.74 10.2mph 8.50000 6:06:17.41
  Lap 8 50:32.40 10.1mph 8.50000 6:56:49.81
  Lap 9 47:26.08 10.8mph 8.50000 7:44:15.89
  Lap 10 59:58.52 8.50mph 8.50000 8:44:14.41
  Lap 11 49:54.52 10.2mph 8.50000 9:34:08.93
  Lap 12 58:31.39 8.71mph 8.50000 10:32:40.32
  Lap 13 57:43.11 8.84mph 8.50000 11:30:23.43
  Lap 14 1:00:27.91 8.43mph 8.50000 12:30:51.34
  Lap 15 1:04:44.77 7.88mph 8.50000 13:35:36.11
  Lap 16 59:52.15 8.52mph 8.50000 14:35:28.26
  Lap 17 1:01:33.45 8.28mph 8.50000 15:37:01.71
  Lap 18 1:03:02.04 8.09mph 8.50000 16:40:03.75
  Lap 19 57:54.90 8.81mph 8.50000 17:37:58.65
  Lap 20 55:39.46 9.16mph 8.50000 18:33:38.11
  Lap 21 52:41.49 9.68mph 8.50000 19:26:19.60
  Lap 22 50:25.70 10.1mph 8.50000 20:16:45.30
  Lap 23 50:56.68 10.0mph 8.50000 21:07:41.98
  Lap 24 49:49.81 10.2mph 8.50000 21:57:31.79
  Lap 25 51:33.55 9.89mph 8.50000 22:49:05.34
  Lap 26 57:25.60 8.88mph 8.50000 23:46:30.94
 
3 #GoatStrong 129   25   8.95mph 212.50000 23:44:12.64
  Lap 1 59:18.25 8.60mph 8.50000 59:18.25
  Lap 2 49:44.34 10.3mph 8.50000 1:49:02.59
  Lap 3 54:48.77 9.30mph 8.50000 2:43:51.36
  Lap 4 49:04.01 10.4mph 8.50000 3:32:55.37
  Lap 5 44:40.63 11.4mph 8.50000 4:17:36.00
  Lap 6 55:14.86 9.23mph 8.50000 5:12:50.86
  Lap 7 50:26.17 10.1mph 8.50000 6:03:17.03
  Lap 8 51:50.86 9.84mph 8.50000 6:55:07.89
  Lap 9 45:57.33 11.1mph 8.50000 7:41:05.22
  Lap 10 58:32.66 8.71mph 8.50000 8:39:37.88
  Lap 11 54:50.51 9.30mph 8.50000 9:34:28.39
  Lap 12 1:00:40.59 8.41mph 8.50000 10:35:08.98
  Lap 13 54:33.85 9.35mph 8.50000 11:29:42.83
  Lap 14 54:36.05 9.34mph 8.50000 12:24:18.88
  Lap 15 1:03:48.32 7.99mph 8.50000 13:28:07.20
  Lap 16 1:12:31.68 7.03mph 8.50000 14:40:38.88
  Lap 17 1:02:57.74 8.10mph 8.50000 15:43:36.62
  Lap 18 1:10:08.08 7.27mph 8.50000 16:53:44.70
  Lap 19 1:09:42.77 7.32mph 8.50000 18:03:27.47
  Lap 20 57:29.35 8.87mph 8.50000 19:00:56.82
  Lap 21 54:15.76 9.40mph 8.50000 19:55:12.58
  Lap 22 55:08.11 9.25mph 8.50000 20:50:20.69
  Lap 23 56:43.93 8.99mph 8.50000 21:47:04.62
  Lap 24 54:13.59 9.40mph 8.50000 22:41:18.21
  Lap 25 1:02:54.43 8.11mph 8.50000 23:44:12.64
24 Hour 4 Person Mixed MTB Team
Mixed 0-99
Place Name Team Bib No Gender/Age Laps Time Pace Distance Total Time
1 Lappin' Around 124   34   12.3mph 289.00000 23:35:28.28
  Lap 1 47:06.30 10.8mph 8.50000 47:06.30
  Lap 2 38:55.23 13.1mph 8.50000 1:26:01.53
  Lap 3 41:26.82 12.3mph 8.50000 2:07:28.35
  Lap 4 37:24.25 13.6mph 8.50000 2:44:52.60
  Lap 5 37:12.84 13.7mph 8.50000 3:22:05.44
  Lap 6 39:01.06 13.1mph 8.50000 4:01:06.50
  Lap 7 41:07.20 12.4mph 8.50000 4:42:13.70
  Lap 8 38:03.37 13.4mph 8.50000 5:20:17.07
  Lap 9 36:53.81 13.8mph 8.50000 5:57:10.88
  Lap 10 39:20.05 13.0mph 8.50000 6:36:30.93
  Lap 11 42:00.56 12.1mph 8.50000 7:18:31.49
  Lap 12 38:51.25 13.1mph 8.50000 7:57:22.74
  Lap 13 36:19.18 14.0mph 8.50000 8:33:41.92
  Lap 14 38:14.11 13.3mph 8.50000 9:11:56.03
  Lap 15 48:39.87 10.5mph 8.50000 10:00:35.90
  Lap 16 44:29.62 11.5mph 8.50000 10:45:05.52
  Lap 17 40:23.91 12.6mph 8.50000 11:25:29.43
  Lap 18 42:05.49 12.1mph 8.50000 12:07:34.92
  Lap 19 42:12.37 12.1mph 8.50000 12:49:47.29
  Lap 20 44:18.92 11.5mph 8.50000 13:34:06.21
  Lap 21 46:56.94 10.9mph 8.50000 14:21:03.15
  Lap 22 47:00.24 10.9mph 8.50000 15:08:03.39
  Lap 23 45:46.55 11.1mph 8.50000 15:53:49.94
  Lap 24 48:30.07 10.5mph 8.50000 16:42:20.01
  Lap 25 41:45.92 12.2mph 8.50000 17:24:05.93
  Lap 26 43:56.39 11.6mph 8.50000 18:08:02.32
  Lap 27 43:38.37 11.7mph 8.50000 18:51:40.69
  Lap 28 40:19.47 12.6mph 8.50000 19:32:00.16
  Lap 29 38:06.82 13.4mph 8.50000 20:10:06.98
  Lap 30 39:25.89 12.9mph 8.50000 20:49:32.87
  Lap 31 42:23.38 12.0mph 8.50000 21:31:56.25
  Lap 32 40:32.83 12.6mph 8.50000 22:12:29.08
  Lap 33 38:33.62 13.2mph 8.50000 22:51:02.70
  Lap 34 44:25.58 11.5mph 8.50000 23:35:28.28
 
2 Fox Burns The Sloth Wheel 119   30   10.7mph 255.00000 23:48:53.92
  Lap 1 46:51.35 10.9mph 8.50000 46:51.35
  Lap 2 36:29.74 14.0mph 8.50000 1:23:21.09
  Lap 3 45:24.98 11.2mph 8.50000 2:08:46.07
  Lap 4 44:13.93 11.5mph 8.50000 2:53:00.00
  Lap 5 47:54.03 10.6mph 8.50000 3:40:54.03
  Lap 6 47:40.37 10.7mph 8.50000 4:28:34.40
  Lap 7 46:49.74 10.9mph 8.50000 5:15:24.14
  Lap 8 50:04.87 10.2mph 8.50000 6:05:29.01
  Lap 9 36:06.33 14.1mph 8.50000 6:41:35.34
  Lap 10 37:31.51 13.6mph 8.50000 7:19:06.85
  Lap 11 48:08.44 10.6mph 8.50000 8:07:15.29
  Lap 12 55:22.05 9.21mph 8.50000 9:02:37.34
  Lap 13 48:46.31 10.5mph 8.50000 9:51:23.65
  Lap 14 49:07.58 10.4mph 8.50000 10:40:31.23
  Lap 15 51:17.34 9.9mph 8.50000 11:31:48.57
  Lap 16 54:28.58 9.36mph 8.50000 12:26:17.15
  Lap 17 40:23.17 12.6mph 8.50000 13:06:40.32
  Lap 18 39:54.31 12.8mph 8.50000 13:46:34.63
  Lap 19 1:20:35.97 6.33mph 8.50000 15:07:10.60
  Lap 20 56:25.55 9.04mph 8.50000 16:03:36.15
  Lap 21 51:31.40 9.90mph 8.50000 16:55:07.55
  Lap 22 55:01.13 9.27mph 8.50000 17:50:08.68
  Lap 23 58:20.88 8.74mph 8.50000 18:48:29.56
  Lap 24 37:13.34 13.7mph 8.50000 19:25:42.90
  Lap 25 37:46.63 13.5mph 8.50000 20:03:29.53
  Lap 26 43:10.82 11.8mph 8.50000 20:46:40.35
  Lap 27 47:32.52 10.7mph 8.50000 21:34:12.87
  Lap 28 38:55.74 13.1mph 8.50000 22:13:08.61
  Lap 29 48:34.93 10.5mph 8.50000 23:01:43.54
  Lap 30 47:10.38 10.8mph 8.50000 23:48:53.92
 
3 Twct- Ride Or Die 121   29   10.4mph 246.50000 23:35:32.11
  Lap 1 53:25.29 9.55mph 8.50000 53:25.29
  Lap 2 38:37.02 13.2mph 8.50000 1:32:02.31
  Lap 3 43:18.52 11.8mph 8.50000 2:15:20.83
  Lap 4 53:30.71 9.53mph 8.50000 3:08:51.54
  Lap 5 44:45.74 11.4mph 8.50000 3:53:37.28
  Lap 6 40:34.91 12.6mph 8.50000 4:34:12.19
  Lap 7 45:18.08 11.3mph 8.50000 5:19:30.27
  Lap 8 51:19.10 9.94mph 8.50000 6:10:49.37
  Lap 9 45:36.90 11.2mph 8.50000 6:56:26.27
  Lap 10 41:00.87 12.4mph 8.50000 7:37:27.14
  Lap 11 44:47.77 11.4mph 8.50000 8:22:14.91
  Lap 12 53:07.14 9.60mph 8.50000 9:15:22.05
  Lap 13 1:03:33.29 8.02mph 8.50000 10:18:55.34
  Lap 14 46:48.92 10.9mph 8.50000 11:05:44.26
  Lap 15 53:36.35 9.51mph 8.50000 11:59:20.61
  Lap 16 46:43.62 10.9mph 8.50000 12:46:04.23
  Lap 17 46:41.05 10.9mph 8.50000 13:32:45.28
  Lap 18 50:15.24 10.1mph 8.50000 14:23:00.52
  Lap 19 50:03.05 10.2mph 8.50000 15:13:03.57
  Lap 20 1:05:53.17 7.74mph 8.50000 16:18:56.74
  Lap 21 1:14:33.48 6.84mph 8.50000 17:33:30.22
  Lap 22 47:14.85 10.8mph 8.50000 18:20:45.07
  Lap 23 53:45.24 9.49mph 8.50000 19:14:30.31
  Lap 24 41:58.95 12.1mph 8.50000 19:56:29.26
  Lap 25 40:39.80 12.5mph 8.50000 20:37:09.06
  Lap 26 48:00.40 10.6mph 8.50000 21:25:09.46
  Lap 27 45:23.09 11.2mph 8.50000 22:10:32.55
  Lap 28 39:59.89 12.8mph 8.50000 22:50:32.44
  Lap 29 44:59.67 11.3mph 8.50000 23:35:32.11
 
4 TWCT STANR/JVE 125   28   10.2mph 238.00000 23:25:14.96
  Lap 1 51:26.47 9.91mph 8.50000 51:26.47
  Lap 2 45:19.77 11.3mph 8.50000 1:36:46.24
  Lap 3 54:05.43 9.43mph 8.50000 2:30:51.67
  Lap 4 43:53.64 11.6mph 8.50000 3:14:45.31
  Lap 5 41:27.85 12.3mph 8.50000 3:56:13.16
  Lap 6 47:05.33 10.8mph 8.50000 4:43:18.49
  Lap 7 54:13.63 9.40mph 8.50000 5:37:32.12
  Lap 8 46:06.50 11.1mph 8.50000 6:23:38.62
  Lap 9 40:12.55 12.7mph 8.50000 7:03:51.17
  Lap 10 45:08.20 11.3mph 8.50000 7:48:59.37
  Lap 11 51:53.66 9.83mph 8.50000 8:40:53.03
  Lap 12 47:08.11 10.8mph 8.50000 9:28:01.14
  Lap 13 44:51.93 11.4mph 8.50000 10:12:53.07
  Lap 14 50:44.96 10.0mph 8.50000 11:03:38.03
  Lap 15 55:02.44 9.27mph 8.50000 11:58:40.47
  Lap 16 1:04:32.67 7.90mph 8.50000 13:03:13.14
  Lap 17 1:01:47.43 8.25mph 8.50000 14:05:00.57
  Lap 18 1:00:22.85 8.45mph 8.50000 15:05:23.42
  Lap 19 56:01.20 9.10mph 8.50000 16:01:24.62
  Lap 20 54:21.30 9.38mph 8.50000 16:55:45.92
  Lap 21 45:18.10 11.3mph 8.50000 17:41:04.02
  Lap 22 43:59.84 11.6mph 8.50000 18:25:03.86
  Lap 23 51:29.77 9.90mph 8.50000 19:16:33.63
  Lap 24 55:41.78 9.16mph 8.50000 20:12:15.41
  Lap 25 52:05.91 9.79mph 8.50000 21:04:21.32
  Lap 26 47:52.94 10.7mph 8.50000 21:52:14.26
  Lap 27 49:40.94 10.3mph 8.50000 22:41:55.20
  Lap 28 43:19.76 11.8mph 8.50000 23:25:14.96
 
5 Mah N? Mah N? (twct) 123   22   7.92mph 187.00000 23:35:46.52
  Lap 1 56:05.19 9.09mph 8.50000 56:05.19
  Lap 2 43:27.52 11.7mph 8.50000 1:39:32.71
  Lap 3 45:12.95 11.3mph 8.50000 2:24:45.66
  Lap 4 1:03:03.29 8.09mph 8.50000 3:27:48.95
  Lap 5 47:20.30 10.8mph 8.50000 4:15:09.25
  Lap 6 44:13.46 11.5mph 8.50000 4:59:22.71
  Lap 7 46:36.05 10.9mph 8.50000 5:45:58.76
  Lap 8 1:00:30.84 8.43mph 8.50000 6:46:29.60
  Lap 9 47:48.55 10.7mph 8.50000 7:34:18.15
  Lap 10 43:26.08 11.7mph 8.50000 8:17:44.23
  Lap 11 47:05.30 10.8mph 8.50000 9:04:49.53
  Lap 12 1:03:03.43 8.09mph 8.50000 10:07:52.96
  Lap 13 54:58.52 9.28mph 8.50000 11:02:51.48
  Lap 14 57:47.42 8.83mph 8.50000 12:00:38.90
  Lap 15 54:59.61 9.27mph 8.50000 12:55:38.51
  Lap 16 1:51:29.18 4.57mph 8.50000 14:47:07.69
  Lap 17 57:04.92 8.93mph 8.50000 15:44:12.61
  Lap 18 3:53:04.51 2.19mph 8.50000 19:37:17.12
  Lap 19 56:12.22 9.07mph 8.50000 20:33:29.34
  Lap 20 1:35:46.28 5.33mph 8.50000 22:09:15.62
  Lap 21 41:32.23 12.3mph 8.50000 22:50:47.85
  Lap 22 44:58.67 11.3mph 8.50000 23:35:46.52
 
6 Chafing the dream 127   19   6.91mph 161.50000 23:22:16.88
  Lap 1 1:07:12.34 7.59mph 8.50000 1:07:12.34
  Lap 2 58:23.95 8.73mph 8.50000 2:05:36.29
  Lap 3 39:59.55 12.8mph 8.50000 2:45:35.84
  Lap 4 1:16:50.33 6.64mph 8.50000 4:02:26.17
  Lap 5 57:35.59 8.86mph 8.50000 5:00:01.76
  Lap 6 1:02:03.26 8.22mph 8.50000 6:02:05.02
  Lap 7 1:30:32.93 5.63mph 8.50000 7:32:37.95
  Lap 8 41:39.19 12.2mph 8.50000 8:14:17.14
  Lap 9 1:28:07.17 5.79mph 8.50000 9:42:24.31
  Lap 10 1:06:08.10 7.71mph 8.50000 10:48:32.41
  Lap 11 41:12.86 12.4mph 8.50000 11:29:45.27
  Lap 12 1:43:14.73 4.94mph 8.50000 13:13:00.00
  Lap 13 4:42:38.68 1.80mph 8.50000 17:55:38.68
  Lap 14 1:09:47.10 7.31mph 8.50000 19:05:25.78
  Lap 15 1:09:50.78 7.30mph 8.50000 20:15:16.56
  Lap 16 40:50.05 12.5mph 8.50000 20:56:06.61
  Lap 17 56:19.55 9.05mph 8.50000 21:52:26.16
  Lap 18 50:11.29 10.2mph 8.50000 22:42:37.45
  Lap 19 39:39.43 12.9mph 8.50000 23:22:16.88
 
7 Team Dirty Tacos 118   15   6.58mph 127.50000 19:21:58.62
  Lap 1 52:35.25 9.70mph 8.50000 52:35.25
  Lap 2 51:14.90 10.0mph 8.50000 1:43:50.15
  Lap 3 1:03:31.99 8.03mph 8.50000 2:47:22.14
  Lap 4 56:37.56 9.01mph 8.50000 3:43:59.70
  Lap 5 45:18.40 11.3mph 8.50000 4:29:18.10
  Lap 6 55:34.90 9.18mph 8.50000 5:24:53.00
  Lap 7 59:23.74 8.59mph 8.50000 6:24:16.74
  Lap 8 43:26.48 11.7mph 8.50000 7:07:43.22
  Lap 9 56:13.53 9.07mph 8.50000 8:03:56.75
  Lap 10 2:17:15.29 3.72mph 8.50000 10:21:12.04
  Lap 11 1:12:50.71 7.00mph 8.50000 11:34:02.75
  Lap 12 46:26.82 11.0mph 8.50000 12:20:29.57
  Lap 13 1:41:58.28 5.00mph 8.50000 14:02:27.85
  Lap 14 3:40:55.74 2.31mph 8.50000 17:43:23.59
  Lap 15 1:38:35.03 5.17mph 8.50000 19:21:58.62
 
8 Black Cat Bicycle Club P/b #teamian/#fightlikejp 128   15   5.71mph 127.50000 22:19:57.85
  Lap 1 1:06:00.00 7.73mph 8.50000 1:06:00.00
  Lap 2 47:49.71 10.7mph 8.50000 1:53:49.71
  Lap 3 1:11:16.77 7.15mph 8.50000 3:05:06.48
  Lap 4 1:07:53.86 7.51mph 8.50000 4:13:00.34
  Lap 5 50:22.53 10.1mph 8.50000 5:03:22.87
  Lap 6 49:49.52 10.2mph 8.50000 5:53:12.39
  Lap 7 1:09:56.42 7.29mph 8.50000 7:03:08.81
  Lap 8 1:12:03.86 7.08mph 8.50000 8:15:12.67
  Lap 9 52:11.43 9.77mph 8.50000 9:07:24.10
  Lap 10 1:02:54.22 8.11mph 8.50000 10:10:18.32
  Lap 11 1:35:13.42 5.36mph 8.50000 11:45:31.74
  Lap 12 7:58:50.40 1.07mph 8.50000 19:44:22.14
  Lap 13 53:24.52 9.55mph 8.50000 20:37:46.66
  Lap 14 50:56.54 10.0mph 8.50000 21:28:43.20
  Lap 15 51:14.65 10.0mph 8.50000 22:19:57.85
 
9 Cad Strength 122   12   4.65mph 102.00000 21:56:40.66
  Lap 1 1:02:09.77 8.20mph 8.50000 1:02:09.77
  Lap 2 1:23:04.50 6.14mph 8.50000 2:25:14.27
  Lap 3 53:07.01 9.60mph 8.50000 3:18:21.28
  Lap 4 1:40:40.44 5.07mph 8.50000 4:59:01.72
  Lap 5 2:51:16.35 2.98mph 8.50000 7:50:18.07
  Lap 6 1:09:41.06 7.32mph 8.50000 8:59:59.13
  Lap 7 2:04:34.43 4.09mph 8.50000 11:04:33.56
  Lap 8 5:41:47.04 1.49mph 8.50000 16:46:20.60
  Lap 9 1:19:41.21 6.40mph 8.50000 18:06:01.81
  Lap 10 1:25:06.37 5.99mph 8.50000 19:31:08.18
  Lap 11 1:32:30.88 5.51mph 8.50000 21:03:39.06
  Lap 12 53:01.60 9.62mph 8.50000 21:56:40.66
 
10 Og Twct 120   9   10.9mph 76.50000 6:59:41.16
  Lap 1 52:55.38 9.64mph 8.50000 52:55.38
  Lap 2 45:24.97 11.2mph 8.50000 1:38:20.35
  Lap 3 42:57.69 11.9mph 8.50000 2:21:18.04
  Lap 4 47:43.14 10.7mph 8.50000 3:09:01.18
  Lap 5 42:08.33 12.1mph 8.50000 3:51:09.51
  Lap 6 49:43.18 10.3mph 8.50000 4:40:52.69
  Lap 7 44:01.46 11.6mph 8.50000 5:24:54.15
  Lap 8 49:39.70 10.3mph 8.50000 6:14:33.85
  Lap 9 45:07.31 11.3mph 8.50000 6:59:41.16
 
11 Amarillo National Bank 126   8   6.20mph 68.00000 10:57:32.44
  Lap 1 1:39:41.68 5.12mph 8.50000 1:39:41.68
  Lap 2 58:57.02 8.65mph 8.50000 2:38:38.70
  Lap 3 1:27:38.60 5.82mph 8.50000 4:06:17.30
  Lap 4 56:00.51 9.11mph 8.50000 5:02:17.81
  Lap 5 1:52:49.27 4.52mph 8.50000 6:55:07.08
  Lap 6 57:21.10 8.89mph 8.50000 7:52:28.18
  Lap 7 1:03:22.51 8.05mph 8.50000 8:55:50.69
  Lap 8 2:01:41.75 4.19mph 8.50000 10:57:32.44
24 Hour LARGE M MTB Team
Male 99 and Under
Place Name Team Bib No Gender/Age Laps Time Pace Distance Total Time
1 HBLF24 207   29   10.4mph 246.50000 23:41:13.33
  Lap 1 1:03:13.79 8.07mph 8.50000 1:03:13.79
  Lap 2 44:13.12 11.5mph 8.50000 1:47:26.91
  Lap 3 44:45.19 11.4mph 8.50000 2:32:12.10
  Lap 4 38:42.82 13.2mph 8.50000 3:10:54.92
  Lap 5 55:12.12 9.24mph 8.50000 4:06:07.04
  Lap 6 1:00:02.53 8.49mph 8.50000 5:06:09.57
  Lap 7 46:44.37 10.9mph 8.50000 5:52:53.94
  Lap 8 45:38.93 11.2mph 8.50000 6:38:32.87
  Lap 9 43:18.38 11.8mph 8.50000 7:21:51.25
  Lap 10 37:56.03 13.4mph 8.50000 7:59:47.28
  Lap 11 49:22.31 10.3mph 8.50000 8:49:09.59
  Lap 12 51:58.26 9.81mph 8.50000 9:41:07.85
  Lap 13 58:14.89 8.76mph 8.50000 10:39:22.74
  Lap 14 48:39.13 10.5mph 8.50000 11:28:01.87
  Lap 15 47:49.01 10.7mph 8.50000 12:15:50.88
  Lap 16 47:06.21 10.8mph 8.50000 13:02:57.09
  Lap 17 43:02.43 11.8mph 8.50000 13:45:59.52
  Lap 18 1:00:19.58 8.45mph 8.50000 14:46:19.10
  Lap 19 58:11.90 8.76mph 8.50000 15:44:31.00
  Lap 20 1:00:04.95 8.49mph 8.50000 16:44:35.95
  Lap 21 47:43.80 10.7mph 8.50000 17:32:19.75
  Lap 22 48:17.19 10.6mph 8.50000 18:20:36.94
  Lap 23 45:20.49 11.2mph 8.50000 19:05:57.43
  Lap 24 39:20.93 13.0mph 8.50000 19:45:18.36
  Lap 25 48:36.98 10.5mph 8.50000 20:33:55.34
  Lap 26 52:52.66 9.64mph 8.50000 21:26:48.00
  Lap 27 44:53.69 11.4mph 8.50000 22:11:41.69
  Lap 28 44:31.78 11.5mph 8.50000 22:56:13.47
  Lap 29 44:59.86 11.3mph 8.50000 23:41:13.33
 
2 CrossFit 806 206   29   10.4mph 246.50000 23:45:41.17
  Lap 1 56:14.66 9.07mph 8.50000 56:14.66
  Lap 2 38:19.34 13.3mph 8.50000 1:34:34.00
  Lap 3 43:02.79 11.8mph 8.50000 2:17:36.79
  Lap 4 45:36.21 11.2mph 8.50000 3:03:13.00
  Lap 5 1:09:55.68 7.29mph 8.50000 4:13:08.68
  Lap 6 45:27.76 11.2mph 8.50000 4:58:36.44
  Lap 7 39:23.56 12.9mph 8.50000 5:38:00.00
  Lap 8 40:13.52 12.7mph 8.50000 6:18:13.52
  Lap 9 40:31.83 12.6mph 8.50000 6:58:45.35
  Lap 10 51:56.70 9.82mph 8.50000 7:50:42.05
  Lap 11 46:14.93 11.0mph 8.50000 8:36:56.98
  Lap 12 45:34.79 11.2mph 8.50000 9:22:31.77
  Lap 13 43:44.43 11.7mph 8.50000 10:06:16.20
  Lap 14 43:41.60 11.7mph 8.50000 10:49:57.80
  Lap 15 1:04:49.79 7.87mph 8.50000 11:54:47.59
  Lap 16 58:27.33 8.72mph 8.50000 12:53:14.92
  Lap 17 43:23.41 11.8mph 8.50000 13:36:38.33
  Lap 18 56:16.28 9.06mph 8.50000 14:32:54.61
  Lap 19 59:59.83 8.50mph 8.50000 15:32:54.44
  Lap 20 1:16:20.62 6.68mph 8.50000 16:49:15.06
  Lap 21 43:10.99 11.8mph 8.50000 17:32:26.05
  Lap 22 47:26.53 10.7mph 8.50000 18:19:52.58
  Lap 23 53:00.93 9.62mph 8.50000 19:12:53.51
  Lap 24 52:07.85 9.78mph 8.50000 20:05:01.36
  Lap 25 40:37.61 12.6mph 8.50000 20:45:38.97
  Lap 26 42:42.75 11.9mph 8.50000 21:28:21.72
  Lap 27 38:48.95 13.1mph 8.50000 22:07:10.67
  Lap 28 39:17.73 13.0mph 8.50000 22:46:28.40
  Lap 29 59:12.77 8.61mph 8.50000 23:45:41.17
 
3 75022 Bike Crew 203   28   10.1mph 238.00000 23:35:48.28
  Lap 1 52:14.99 9.76mph 8.50000 52:14.99
  Lap 2 46:21.43 11.0mph 8.50000 1:38:36.42
  Lap 3 50:36.20 10.1mph 8.50000 2:29:12.62
  Lap 4 45:31.66 11.2mph 8.50000 3:14:44.28
  Lap 5 1:06:11.63 7.70mph 8.50000 4:20:55.91
  Lap 6 40:33.06 12.6mph 8.50000 5:01:28.97
  Lap 7 40:31.03 12.6mph 8.50000 5:42:00.00
  Lap 8 49:00.41 10.4mph 8.50000 6:31:00.41
  Lap 9 51:46.77 9.85mph 8.50000 7:22:47.18
  Lap 10 47:03.58 10.8mph 8.50000 8:09:50.76
  Lap 11 1:04:22.69 7.92mph 8.50000 9:14:13.45
  Lap 12 44:46.55 11.4mph 8.50000 9:59:00.00
  Lap 13 43:36.23 11.7mph 8.50000 10:42:36.23
  Lap 14 49:47.75 10.2mph 8.50000 11:32:23.98
  Lap 15 51:36.02 9.88mph 8.50000 12:24:00.00
  Lap 16 42:55.47 11.9mph 8.50000 13:06:55.47
  Lap 17 52:13.96 9.76mph 8.50000 13:59:09.43
  Lap 18 1:00:10.05 8.48mph 8.50000 14:59:19.48
  Lap 19 51:59.53 9.81mph 8.50000 15:51:19.01
  Lap 20 45:52.05 11.1mph 8.50000 16:37:11.06
  Lap 21 1:15:55.77 6.72mph 8.50000 17:53:06.83
  Lap 22 51:15.94 9.9mph 8.50000 18:44:22.77
  Lap 23 41:51.99 12.2mph 8.50000 19:26:14.76
  Lap 24 1:07:53.36 7.51mph 8.50000 20:34:08.12
  Lap 25 38:07.84 13.4mph 8.50000 21:12:15.96
  Lap 26 52:11.35 9.77mph 8.50000 22:04:27.31
  Lap 27 50:12.92 10.2mph 8.50000 22:54:40.23
  Lap 28 41:08.05 12.4mph 8.50000 23:35:48.28
 
4 Local Legends Outfitters 205   26   9.24mph 221.00000 23:55:13.68
  Lap 1 55:07.87 9.25mph 8.50000 55:07.87
  Lap 2 46:24.42 11.0mph 8.50000 1:41:32.29
  Lap 3 50:38.14 10.1mph 8.50000 2:32:10.43
  Lap 4 44:27.46 11.5mph 8.50000 3:16:37.89
  Lap 5 1:16:34.44 6.66mph 8.50000 4:33:12.33
  Lap 6 50:42.63 10.1mph 8.50000 5:23:54.96
  Lap 7 1:13:20.16 6.95mph 8.50000 6:37:15.12
  Lap 8 42:12.81 12.1mph 8.50000 7:19:27.93
  Lap 9 47:57.29 10.6mph 8.50000 8:07:25.22
  Lap 10 49:01.08 10.4mph 8.50000 8:56:26.30
  Lap 11 48:04.60 10.6mph 8.50000 9:44:30.90
  Lap 12 1:21:28.50 6.26mph 8.50000 11:05:59.40
  Lap 13 52:45.01 9.67mph 8.50000 11:58:44.41
  Lap 14 1:32:01.33 5.54mph 8.50000 13:30:45.74
  Lap 15 47:19.59 10.8mph 8.50000 14:18:05.33
  Lap 16 53:08.92 9.60mph 8.50000 15:11:14.25
  Lap 17 58:21.25 8.74mph 8.50000 16:09:35.50
  Lap 18 53:44.99 9.49mph 8.50000 17:03:20.49
  Lap 19 1:29:05.08 5.72mph 8.50000 18:32:25.57
  Lap 20 50:22.38 10.1mph 8.50000 19:22:47.95
  Lap 21 43:38.82 11.7mph 8.50000 20:06:26.77
  Lap 22 44:37.13 11.4mph 8.50000 20:51:03.90
  Lap 23 48:28.26 10.5mph 8.50000 21:39:32.16
  Lap 24 45:17.45 11.3mph 8.50000 22:24:49.61
  Lap 25 48:34.59 10.5mph 8.50000 23:13:24.20
  Lap 26 41:49.48 12.2mph 8.50000 23:55:13.68
 
5 The Bikesexuals 211   17   6.16mph 144.50000 23:27:59.87
  Lap 1 1:38:54.06 5.16mph 8.50000 1:38:54.06
  Lap 2 55:42.88 9.15mph 8.50000 2:34:36.94
  Lap 3 52:07.22 9.79mph 8.50000 3:26:44.16
  Lap 4 1:00:38.13 8.41mph 8.50000 4:27:22.29
  Lap 5 1:10:02.14 7.28mph 8.50000 5:37:24.43
  Lap 6 1:06:33.25 7.66mph 8.50000 6:43:57.68
  Lap 7 1:22:21.55 6.19mph 8.50000 8:06:19.23
  Lap 8 1:40:12.25 5.09mph 8.50000 9:46:31.48
  Lap 9 52:48.29 9.66mph 8.50000 10:39:19.77
  Lap 10 48:38.81 10.5mph 8.50000 11:27:58.58
  Lap 11 1:03:57.85 7.97mph 8.50000 12:31:56.43
  Lap 12 56:54.32 8.96mph 8.50000 13:28:50.75
  Lap 13 1:07:19.44 7.58mph 8.50000 14:36:10.19
  Lap 14 59:20.55 8.59mph 8.50000 15:35:30.74
  Lap 15 4:55:08.82 1.73mph 8.50000 20:30:39.56
  Lap 16 51:14.70 10.0mph 8.50000 21:21:54.26
  Lap 17 2:06:05.61 4.04mph 8.50000 23:27:59.87
 
6 The Senior Wheelers 204   12   9.10mph 102.00000 11:12:37.41
  Lap 1 1:05:55.04 7.74mph 8.50000 1:05:55.04
  Lap 2 46:26.10 11.0mph 8.50000 1:52:21.14
  Lap 3 59:39.23 8.55mph 8.50000 2:52:00.37
  Lap 4 57:50.34 8.82mph 8.50000 3:49:50.71
  Lap 5 44:31.42 11.5mph 8.50000 4:34:22.13
  Lap 6 46:53.84 10.9mph 8.50000 5:21:15.97
  Lap 7 1:03:39.52 8.01mph 8.50000 6:24:55.49
  Lap 8 51:04.37 10.0mph 8.50000 7:15:59.86
  Lap 9 42:42.21 11.9mph 8.50000 7:58:42.07
  Lap 10 54:24.38 9.37mph 8.50000 8:53:06.45
  Lap 11 1:23:34.44 6.10mph 8.50000 10:16:40.89
  Lap 12 55:56.52 9.12mph 8.50000 11:12:37.41
24 Hour LARGE F MTB Team
Female 99 and Under
Place Name Team Bib No Gender/Age Laps Time Pace Distance Total Time
1 ACCU Hammer Cats 202   19   6.94mph 161.50000 23:17:04.99
  Lap 1 1:15:14.71 6.78mph 8.50000 1:15:14.71
  Lap 2 52:09.16 9.78mph 8.50000 2:07:23.87
  Lap 3 48:58.53 10.4mph 8.50000 2:56:22.40
  Lap 4 56:48.65 8.98mph 8.50000 3:53:11.05
  Lap 5 59:17.92 8.60mph 8.50000 4:52:28.97
  Lap 6 1:09:41.42 7.32mph 8.50000 6:02:10.39
  Lap 7 55:45.16 9.15mph 8.50000 6:57:55.55
  Lap 8 53:05.03 9.61mph 8.50000 7:51:00.58
  Lap 9 56:46.19 8.98mph 8.50000 8:47:46.77
  Lap 10 48:19.30 10.6mph 8.50000 9:36:06.07
  Lap 11 53:10.06 9.59mph 8.50000 10:29:16.13
  Lap 12 1:13:19.23 6.96mph 8.50000 11:42:35.36
  Lap 13 5:27:49.22 1.56mph 8.50000 17:10:24.58
  Lap 14 1:24:45.15 6.02mph 8.50000 18:35:09.73
  Lap 15 53:24.50 9.55mph 8.50000 19:28:34.23
  Lap 16 1:00:39.26 8.41mph 8.50000 20:29:13.49
  Lap 17 51:25.40 9.92mph 8.50000 21:20:38.89
  Lap 18 57:33.95 8.86mph 8.50000 22:18:12.84
  Lap 19 58:52.15 8.66mph 8.50000 23:17:04.99
 
2 Dirt Side Sisters 201   15   6.03mph 127.50000 21:09:18.94
  Lap 1 1:24:39.42 6.02mph 8.50000 1:24:39.42
  Lap 2 55:30.83 9.19mph 8.50000 2:20:10.25
  Lap 3 1:13:41.72 6.92mph 8.50000 3:33:51.97
  Lap 4 1:10:00.83 7.28mph 8.50000 4:43:52.80
  Lap 5 1:25:04.15 6.00mph 8.50000 6:08:56.95
  Lap 6 2:10:46.39 3.90mph 8.50000 8:19:43.34
  Lap 7 59:54.69 8.51mph 8.50000 9:19:38.03
  Lap 8 1:09:28.29 7.34mph 8.50000 10:29:06.32
  Lap 9 2:29:41.92 3.41mph 8.50000 12:58:48.24
  Lap 10 1:12:53.43 7.00mph 8.50000 14:11:41.67
  Lap 11 1:09:59.49 7.29mph 8.50000 15:21:41.16
  Lap 12 1:33:45.23 5.44mph 8.50000 16:55:26.39
  Lap 13 1:55:39.26 4.41mph 8.50000 18:51:05.65
  Lap 14 1:15:35.08 6.75mph 8.50000 20:06:40.73
  Lap 15 1:02:38.21 8.14mph 8.50000 21:09:18.94
24 Hour LARGE Mixed MTB Team
Mixed 0-99
Place Name Team Bib No Gender/Age Laps Time Pace Distance Total Time
1 Phillips 66 209   31   11.2mph 263.50000 23:33:20.17
  Lap 1 51:33.53 9.89mph 8.50000 51:33.53
  Lap 2 39:12.99 13.0mph 8.50000 1:30:46.52
  Lap 3 41:20.67 12.3mph 8.50000 2:12:07.19
  Lap 4 40:59.09 12.4mph 8.50000 2:53:06.28
  Lap 5 50:17.90 10.1mph 8.50000 3:43:24.18
  Lap 6 40:39.35 12.5mph 8.50000 4:24:03.53
  Lap 7 52:15.99 9.76mph 8.50000 5:16:19.52
  Lap 8 48:40.13 10.5mph 8.50000 6:04:59.65
  Lap 9 41:39.02 12.2mph 8.50000 6:46:38.67
  Lap 10 38:42.42 13.2mph 8.50000 7:25:21.09
  Lap 11 39:01.86 13.1mph 8.50000 8:04:22.95
  Lap 12 39:41.46 12.8mph 8.50000 8:44:04.41
  Lap 13 49:23.12 10.3mph 8.50000 9:33:27.53
  Lap 14 44:34.24 11.4mph 8.50000 10:18:01.77
  Lap 15 57:38.71 8.85mph 8.50000 11:15:40.48
  Lap 16 57:51.46 8.81mph 8.50000 12:13:31.94
  Lap 17 43:18.33 11.8mph 8.50000 12:56:50.27
  Lap 18 46:54.74 10.9mph 8.50000 13:43:45.01
  Lap 19 41:47.59 12.2mph 8.50000 14:25:32.60
  Lap 20 44:40.36 11.4mph 8.50000 15:10:12.96
  Lap 21 52:47.81 9.66mph 8.50000 16:03:00.77
  Lap 22 43:05.96 11.8mph 8.50000 16:46:06.73
  Lap 23 45:26.21 11.2mph 8.50000 17:31:32.94
  Lap 24 42:27.82 12.0mph 8.50000 18:14:00.76
  Lap 25 40:29.60 12.6mph 8.50000 18:54:30.36
  Lap 26 48:46.54 10.5mph 8.50000 19:43:16.90
  Lap 27 40:56.84 12.5mph 8.50000 20:24:13.74
  Lap 28 40:44.51 12.5mph 8.50000 21:04:58.25
  Lap 29 50:52.62 10.0mph 8.50000 21:55:50.87
  Lap 30 57:05.98 8.93mph 8.50000 22:52:56.85
  Lap 31 40:23.32 12.6mph 8.50000 23:33:20.17
 
2 Round is a Shape Racing 214   28   10.0mph 238.00000 23:51:48.94
  Lap 1 53:28.68 9.54mph 8.50000 53:28.68
  Lap 2 45:03.80 11.3mph 8.50000 1:38:32.48
  Lap 3 42:39.52 12.0mph 8.50000 2:21:12.00
  Lap 4 54:21.67 9.38mph 8.50000 3:15:33.67
  Lap 5 53:46.01 9.49mph 8.50000 4:09:19.68
  Lap 6 41:00.23 12.4mph 8.50000 4:50:19.91
  Lap 7 44:19.97 11.5mph 8.50000 5:34:39.88
  Lap 8 41:58.69 12.1mph 8.50000 6:16:38.57
  Lap 9 55:02.20 9.27mph 8.50000 7:11:40.77
  Lap 10 58:58.85 8.65mph 8.50000 8:10:39.62
  Lap 11 41:13.58 12.4mph 8.50000 8:51:53.20
  Lap 12 46:16.78 11.0mph 8.50000 9:38:09.98
  Lap 13 43:51.10 11.6mph 8.50000 10:22:01.08
  Lap 14 58:55.18 8.66mph 8.50000 11:20:56.26
  Lap 15 43:06.70 11.8mph 8.50000 12:04:02.96
  Lap 16 49:07.75 10.4mph 8.50000 12:53:10.71
  Lap 17 1:01:45.39 8.26mph 8.50000 13:54:56.10
  Lap 18 54:23.73 9.38mph 8.50000 14:49:19.83
  Lap 19 1:13:30.55 6.94mph 8.50000 16:02:50.38
  Lap 20 1:08:16.87 7.47mph 8.50000 17:11:07.25
  Lap 21 1:13:42.33 6.92mph 8.50000 18:24:49.58
  Lap 22 47:59.93 10.6mph 8.50000 19:12:49.51
  Lap 23 55:06.51 9.25mph 8.50000 20:07:56.02
  Lap 24 40:48.33 12.5mph 8.50000 20:48:44.35
  Lap 25 54:03.44 9.43mph 8.50000 21:42:47.79
  Lap 26 42:02.47 12.1mph 8.50000 22:24:50.26
  Lap 27 46:13.84 11.0mph 8.50000 23:11:04.10
  Lap 28 40:44.84 12.5mph 8.50000 23:51:48.94
 
3 Phillips 66 Team Alpha 210   27   9.79mph 229.50000 23:26:49.83
  Lap 1 1:03:30.04 8.03mph 8.50000 1:03:30.04
  Lap 2 48:35.80 10.5mph 8.50000 1:52:05.84
  Lap 3 46:12.88 11.0mph 8.50000 2:38:18.72
  Lap 4 44:11.17 11.5mph 8.50000 3:22:29.89
  Lap 5 54:36.77 9.34mph 8.50000 4:17:06.66
  Lap 6 1:03:24.28 8.04mph 8.50000 5:20:30.94
  Lap 7 58:36.04 8.70mph 8.50000 6:19:06.98
  Lap 8 48:25.51 10.5mph 8.50000 7:07:32.49
  Lap 9 57:11.72 8.92mph 8.50000 8:04:44.21
  Lap 10 42:44.71 11.9mph 8.50000 8:47:28.92
  Lap 11 53:08.13 9.60mph 8.50000 9:40:37.05
  Lap 12 41:46.20 12.2mph 8.50000 10:22:23.25
  Lap 13 44:01.08 11.6mph 8.50000 11:06:24.33
  Lap 14 52:15.28 9.76mph 8.50000 11:58:39.61
  Lap 15 1:13:48.92 6.91mph 8.50000 13:12:28.53
  Lap 16 53:34.38 9.52mph 8.50000 14:06:02.91
  Lap 17 1:08:56.90 7.40mph 8.50000 15:14:59.81
  Lap 18 1:03:43.73 8.00mph 8.50000 16:18:43.54
  Lap 19 32:12.04 15.8mph 8.50000 16:50:55.58
  Lap 20 1:07:18.54 7.58mph 8.50000 17:58:14.12
  Lap 21 1:01:04.11 8.35mph 8.50000 18:59:18.23
  Lap 22 41:43.60 12.2mph 8.50000 19:41:01.83
  Lap 23 40:28.72 12.6mph 8.50000 20:21:30.55
  Lap 24 49:51.57 10.2mph 8.50000 21:11:22.12
  Lap 25 44:51.20 11.4mph 8.50000 21:56:13.32
  Lap 26 47:17.35 10.8mph 8.50000 22:43:30.67
  Lap 27 43:19.16 11.8mph 8.50000 23:26:49.83
 
4 Dirt Side Sisters & Misters 208   26   9.30mph 221.00000 23:45:29.60
  Lap 1 56:11.02 9.08mph 8.50000 56:11.02
  Lap 2 45:37.18 11.2mph 8.50000 1:41:48.20
  Lap 3 42:29.59 12.0mph 8.50000 2:24:17.79
  Lap 4 47:30.32 10.7mph 8.50000 3:11:48.11
  Lap 5 49:51.29 10.2mph 8.50000 4:01:39.40
  Lap 6 59:50.98 8.52mph 8.50000 5:01:30.38
  Lap 7 59:50.17 8.52mph 8.50000 6:01:20.55
  Lap 8 1:11:37.92 7.12mph 8.50000 7:12:58.47
  Lap 9 1:27:48.91 5.81mph 8.50000 8:40:47.38
  Lap 10 44:12.16 11.5mph 8.50000 9:24:59.54
  Lap 11 48:02.25 10.6mph 8.50000 10:13:01.79
  Lap 12 45:49.09 11.1mph 8.50000 10:58:50.88
  Lap 13 1:25:42.75 5.95mph 8.50000 12:24:33.63
  Lap 14 49:48.08 10.2mph 8.50000 13:14:21.71
  Lap 15 48:16.22 10.6mph 8.50000 14:02:37.93
  Lap 16 47:17.40 10.8mph 8.50000 14:49:55.33
  Lap 17 54:13.15 9.41mph 8.50000 15:44:08.48
  Lap 18 51:59.18 9.81mph 8.50000 16:36:07.66
  Lap 19 48:44.64 10.5mph 8.50000 17:24:52.30
  Lap 20 52:18.23 9.75mph 8.50000 18:17:10.53
  Lap 21 45:18.93 11.3mph 8.50000 19:02:29.46
  Lap 22 47:23.55 10.8mph 8.50000 19:49:53.01
  Lap 23 51:21.95 9.93mph 8.50000 20:41:14.96
  Lap 24 47:08.58 10.8mph 8.50000 21:28:23.54
  Lap 25 1:27:57.01 5.80mph 8.50000 22:56:20.55
  Lap 26 49:09.05 10.4mph 8.50000 23:45:29.60
 
5 YSORD ( Yellow Spots On Red Dirt ) 212   24   8.83mph 204.00000 23:05:34.52
  Lap 1 1:00:33.25 8.42mph 8.50000 1:00:33.25
  Lap 2 41:55.33 12.2mph 8.50000 1:42:28.58
  Lap 3 1:05:00.49 7.85mph 8.50000 2:47:29.07
  Lap 4 1:09:23.19 7.35mph 8.50000 3:56:52.26
  Lap 5 52:40.68 9.68mph 8.50000 4:49:32.94
  Lap 6 39:49.46 12.8mph 8.50000 5:29:22.40
  Lap 7 45:06.91 11.3mph 8.50000 6:14:29.31
  Lap 8 46:03.38 11.1mph 8.50000 7:00:32.69
  Lap 9 42:56.25 11.9mph 8.50000 7:43:28.94
  Lap 10 1:02:18.17 8.19mph 8.50000 8:45:47.11
  Lap 11 53:40.53 9.50mph 8.50000 9:39:27.64
  Lap 12 42:56.84 11.9mph 8.50000 10:22:24.48
  Lap 13 56:12.73 9.07mph 8.50000 11:18:37.21
  Lap 14 47:04.27 10.8mph 8.50000 12:05:41.48
  Lap 15 47:57.05 10.6mph 8.50000 12:53:38.53
  Lap 16 1:23:16.49 6.12mph 8.50000 14:16:55.02
  Lap 17 58:08.26 8.77mph 8.50000 15:15:03.28
  Lap 18 45:46.16 11.1mph 8.50000 16:00:49.44
  Lap 19 59:52.30 8.52mph 8.50000 17:00:41.74
  Lap 20 2:18:13.28 3.69mph 8.50000 19:18:55.02
  Lap 21 1:07:54.16 7.51mph 8.50000 20:26:49.18
  Lap 22 43:26.23 11.7mph 8.50000 21:10:15.41
  Lap 23 1:07:39.03 7.54mph 8.50000 22:17:54.44
  Lap 24 47:40.08 10.7mph 8.50000 23:05:34.52
 
6 Cranking Bad (CommTech) 213   19   7.09mph 161.50000 22:47:23.25
  Lap 1 1:05:23.50 7.80mph 8.50000 1:05:23.50
  Lap 2 49:52.72 10.2mph 8.50000 1:55:16.22
  Lap 3 53:07.84 9.60mph 8.50000 2:48:24.06
  Lap 4 1:12:36.58 7.02mph 8.50000 4:01:00.64
  Lap 5 59:25.95 8.58mph 8.50000 5:00:26.59
  Lap 6 55:29.09 9.19mph 8.50000 5:55:55.68
  Lap 7 51:15.19 10.0mph 8.50000 6:47:10.87
  Lap 8 56:46.29 8.98mph 8.50000 7:43:57.16
  Lap 9 1:00:39.05 8.41mph 8.50000 8:44:36.21
  Lap 10 1:17:33.78 6.58mph 8.50000 10:02:09.99
  Lap 11 1:19:23.17 6.42mph 8.50000 11:21:33.16
  Lap 12 1:28:38.84 5.75mph 8.50000 12:50:12.00
  Lap 13 57:19.00 8.90mph 8.50000 13:47:31.00
  Lap 14 1:04:38.00 7.89mph 8.50000 14:52:09.00
  Lap 15 1:22:18.00 6.20mph 8.50000 16:14:27.00
  Lap 16 2:26:13.00 3.49mph 8.50000 18:40:40.00
  Lap 17 2:00:00.00 4.25mph 8.50000 20:40:40.00
  Lap 18 1:13:32.66 6.93mph 8.50000 21:54:12.66
  Lap 19 53:10.59 9.59mph 8.50000 22:47:23.25
24 Hour MM MTB Team
Male 99 and Under
Place Name Team Bib No Gender/Age Laps Time Pace Distance Total Time
1 Team Daddasaurus 110   25   9.37mph 212.50000 22:40:47.70
  Lap 1 53:27.92 9.54mph 8.50000 53:27.92
  Lap 2 48:02.09 10.6mph 8.50000 1:41:30.01
  Lap 3 42:10.93 12.1mph 8.50000 2:23:40.94
  Lap 4 46:16.90 11.0mph 8.50000 3:09:57.84
  Lap 5 42:43.54 11.9mph 8.50000 3:52:41.38
  Lap 6 50:05.71 10.2mph 8.50000 4:42:47.09
  Lap 7 44:28.75 11.5mph 8.50000 5:27:15.84
  Lap 8 1:00:16.98 8.46mph 8.50000 6:27:32.82
  Lap 9 45:29.86 11.2mph 8.50000 7:13:02.68
  Lap 10 45:36.07 11.2mph 8.50000 7:58:38.75
  Lap 11 52:27.07 9.72mph 8.50000 8:51:05.82
  Lap 12 58:37.85 8.70mph 8.50000 9:49:43.67
  Lap 13 46:10.75 11.0mph 8.50000 10:35:54.42
  Lap 14 47:32.97 10.7mph 8.50000 11:23:27.39
  Lap 15 1:04:11.91 7.94mph 8.50000 12:27:39.30
  Lap 16 1:06:01.11 7.73mph 8.50000 13:33:40.41
  Lap 17 1:16:22.91 6.68mph 8.50000 14:50:03.32
  Lap 18 1:06:42.18 7.65mph 8.50000 15:56:45.50
  Lap 19 50:09.81 10.2mph 8.50000 16:46:55.31
  Lap 20 54:29.41 9.36mph 8.50000 17:41:24.72
  Lap 21 56:16.40 9.06mph 8.50000 18:37:41.12
  Lap 22 59:43.31 8.54mph 8.50000 19:37:24.43
  Lap 23 1:00:25.16 8.44mph 8.50000 20:37:49.59
  Lap 24 1:03:57.09 7.97mph 8.50000 21:41:46.68
  Lap 25 59:01.02 8.64mph 8.50000 22:40:47.70
 
2 Team Velocity Bike Shop #2 114   19   7.77mph 161.50000 20:47:53.44
  Lap 1 52:23.95 9.73mph 8.50000 52:23.95
  Lap 2 41:45.31 12.2mph 8.50000 1:34:09.26
  Lap 3 39:27.43 12.9mph 8.50000 2:13:36.69
  Lap 4 42:36.67 12.0mph 8.50000 2:56:13.36
  Lap 5 41:10.39 12.4mph 8.50000 3:37:23.75
  Lap 6 45:36.92 11.2mph 8.50000 4:23:00.67
  Lap 7 40:08.11 12.7mph 8.50000 5:03:08.78
  Lap 8 49:54.90 10.2mph 8.50000 5:53:03.68
  Lap 9 39:53.45 12.8mph 8.50000 6:32:57.13
  Lap 10 48:28.47 10.5mph 8.50000 7:21:25.60
  Lap 11 39:28.61 12.9mph 8.50000 8:00:54.21
  Lap 12 40:45.25 12.5mph 8.50000 8:41:39.46
  Lap 13 49:11.45 10.4mph 8.50000 9:30:50.91
  Lap 14 47:03.59 10.8mph 8.50000 10:17:54.50
  Lap 15 53:33.97 9.52mph 8.50000 11:11:28.47
  Lap 16 49:16.31 10.4mph 8.50000 12:00:44.78
  Lap 17 7:06:10.88 1.20mph 8.50000 19:06:55.66
  Lap 18 47:36.93 10.7mph 8.50000 19:54:32.59
  Lap 19 53:20.85 9.56mph 8.50000 20:47:53.44
 
3 Western Builders 111   10   4.35mph 85.00000 19:33:43.10
  Lap 1 59:14.51 8.61mph 8.50000 59:14.51
  Lap 2 48:32.88 10.5mph 8.50000 1:47:47.39
  Lap 3 49:02.59 10.4mph 8.50000 2:36:49.98
  Lap 4 50:55.16 10.0mph 8.50000 3:27:45.14
  Lap 5 1:53:20.88 4.50mph 8.50000 5:21:06.02
  Lap 6 50:55.76 10.0mph 8.50000 6:12:01.78
  Lap 7 2:41:09.97 3.16mph 8.50000 8:53:11.75
  Lap 8 1:07:08.55 7.60mph 8.50000 10:00:20.30
  Lap 9 1:01:23.28 8.31mph 8.50000 11:01:43.58
  Lap 10 8:31:59.52 1.00mph 8.50000 19:33:43.10
 
4 Road Rash 115   5   7.47mph 42.50000 5:41:32.87
  Lap 1 1:14:43.77 6.82mph 8.50000 1:14:43.77
  Lap 2 1:17:09.94 6.61mph 8.50000 2:31:53.71
  Lap 3 1:00:57.54 8.37mph 8.50000 3:32:51.25
  Lap 4 56:06.67 9.09mph 8.50000 4:28:57.92
  Lap 5 1:12:34.95 7.03mph 8.50000 5:41:32.87
 
5 Pedaling Pickles 112   4   1.60mph 34.00000 21:13:59.31
  Lap 1 1:08:19.14 7.46mph 8.50000 1:08:19.14
  Lap 2 1:13:47.03 6.91mph 8.50000 2:22:06.17
  Lap 3 17:31:40.51 0.48mph 8.50000 19:53:46.68
  Lap 4 1:20:12.63 6.36mph 8.50000 21:13:59.31
 
6 Boneshakers 113   3   7.51mph 25.50000 3:23:42.24
  Lap 1 1:06:24.24 7.68mph 8.50000 1:06:24.24
  Lap 2 1:08:39.38 7.43mph 8.50000 2:15:03.62
  Lap 3 1:08:38.62 7.43mph 8.50000 3:23:42.24
24 Hour FF MTB Team
Female 99 and Under
Place Name Team Bib No Gender/Age Laps Time Pace Distance Total Time
1 The Raisin and The Grape 109   21   8.23mph 178.50000 21:41:07.38
  Lap 1 1:03:20.21 8.05mph 8.50000 1:03:20.21
  Lap 2 45:53.98 11.1mph 8.50000 1:49:14.19
  Lap 3 49:57.05 10.2mph 8.50000 2:39:11.24
  Lap 4 44:50.61 11.4mph 8.50000 3:24:01.85
  Lap 5 50:33.57 10.1mph 8.50000 4:14:35.42
  Lap 6 45:10.97 11.3mph 8.50000 4:59:46.39
  Lap 7 50:46.16 10.0mph 8.50000 5:50:32.55
  Lap 8 46:41.67 10.9mph 8.50000 6:37:14.22
  Lap 9 52:28.73 9.72mph 8.50000 7:29:42.95
  Lap 10 47:15.84 10.8mph 8.50000 8:16:58.79
  Lap 11 55:47.95 9.14mph 8.50000 9:12:46.74
  Lap 12 57:14.08 8.91mph 8.50000 10:10:00.82
  Lap 13 48:03.56 10.6mph 8.50000 10:58:04.38
  Lap 14 1:04:34.79 7.90mph 8.50000 12:02:39.17
  Lap 15 1:06:01.22 7.72mph 8.50000 13:08:40.39
  Lap 16 52:35.77 9.70mph 8.50000 14:01:16.16
  Lap 17 4:04:15.80 2.09mph 8.50000 18:05:31.96
  Lap 18 1:05:16.08 7.81mph 8.50000 19:10:48.04
  Lap 19 53:00.80 9.62mph 8.50000 20:03:48.84
  Lap 20 50:23.64 10.1mph 8.50000 20:54:12.48
  Lap 21 46:54.90 10.9mph 8.50000 21:41:07.38
 
2 BaBes 108   10   3.68mph 85.00000 23:04:32.22
  Lap 1 1:25:16.28 5.98mph 8.50000 1:25:16.28
  Lap 2 1:00:48.59 8.39mph 8.50000 2:26:04.87
  Lap 3 1:30:02.25 5.66mph 8.50000 3:56:07.12
  Lap 4 1:06:41.98 7.65mph 8.50000 5:02:49.10
  Lap 5 2:21:34.52 3.60mph 8.50000 7:24:23.62
  Lap 6 1:05:29.38 7.79mph 8.50000 8:29:53.00
  Lap 7 10:50:59.64 0.78mph 8.50000 19:20:52.64
  Lap 8 1:26:18.07 5.91mph 8.50000 20:47:10.71
  Lap 9 1:05:28.27 7.79mph 8.50000 21:52:38.98
  Lap 10 1:11:53.24 7.09mph 8.50000 23:04:32.22
24 Hour MM SS MTB Team
Male 0-99
Place Name Team Bib No Gender/Age Laps Time Pace Distance Total Time
1 Big Pig Racing (Baker/Proctor) 104   28   10.2mph 238.00000 23:21:54.23
  Lap 1 56:07.99 9.09mph 8.50000 56:07.99
  Lap 2 39:39.20 12.9mph 8.50000 1:35:47.19
  Lap 3 45:13.06 11.3mph 8.50000 2:21:00.25
  Lap 4 44:29.16 11.5mph 8.50000 3:05:29.41
  Lap 5 46:19.41 11.0mph 8.50000 3:51:48.82
  Lap 6 44:33.95 11.4mph 8.50000 4:36:22.77
  Lap 7 44:26.34 11.5mph 8.50000 5:20:49.11
  Lap 8 44:30.40 11.5mph 8.50000 6:05:19.51
  Lap 9 45:50.62 11.1mph 8.50000 6:51:10.13
  Lap 10 43:20.28 11.8mph 8.50000 7:34:30.41
  Lap 11 46:01.60 11.1mph 8.50000 8:20:32.01
  Lap 12 45:12.94 11.3mph 8.50000 9:05:44.95
  Lap 13 49:12.59 10.4mph 8.50000 9:54:57.54
  Lap 14 50:22.72 10.1mph 8.50000 10:45:20.26
  Lap 15 48:23.43 10.5mph 8.50000 11:33:43.69
  Lap 16 51:24.12 9.92mph 8.50000 12:25:07.81
  Lap 17 48:52.61 10.4mph 8.50000 13:14:00.42
  Lap 18 56:34.79 9.01mph 8.50000 14:10:35.21
  Lap 19 1:01:34.92 8.28mph 8.50000 15:12:10.13
  Lap 20 1:05:05.10 7.84mph 8.50000 16:17:15.23
  Lap 21 55:48.20 9.14mph 8.50000 17:13:03.43
  Lap 22 53:26.20 9.54mph 8.50000 18:06:29.63
  Lap 23 54:05.99 9.43mph 8.50000 19:00:35.62
  Lap 24 58:37.37 8.70mph 8.50000 19:59:12.99
  Lap 25 50:11.93 10.2mph 8.50000 20:49:24.92
  Lap 26 47:28.37 10.7mph 8.50000 21:36:53.29
  Lap 27 48:29.03 10.5mph 8.50000 22:25:22.32
  Lap 28 56:31.91 9.02mph 8.50000 23:21:54.23
 
2 Cancer is cheeSSy 102   21   7.64mph 178.50000 23:21:54.50
  Lap 1 54:07.11 9.42mph 8.50000 54:07.11
  Lap 2 45:54.28 11.1mph 8.50000 1:40:01.39
  Lap 3 42:05.72 12.1mph 8.50000 2:22:07.11
  Lap 4 48:53.55 10.4mph 8.50000 3:11:00.66
  Lap 5 44:14.04 11.5mph 8.50000 3:55:14.70
  Lap 6 52:47.16 9.66mph 8.50000 4:48:01.86
  Lap 7 46:05.63 11.1mph 8.50000 5:34:07.49
  Lap 8 46:27.52 11.0mph 8.50000 6:20:35.01
  Lap 9 52:06.01 9.79mph 8.50000 7:12:41.02
  Lap 10 43:10.24 11.8mph 8.50000 7:55:51.26
  Lap 11 45:56.06 11.1mph 8.50000 8:41:47.32
  Lap 12 53:05.16 9.61mph 8.50000 9:34:52.48
  Lap 13 56:10.41 9.08mph 8.50000 10:31:02.89
  Lap 14 45:06.44 11.3mph 8.50000 11:16:09.33
  Lap 15 1:01:25.37 8.30mph 8.50000 12:17:34.70
  Lap 16 5:29:45.88 1.55mph 8.50000 17:47:20.58
  Lap 17 46:32.44 11.0mph 8.50000 18:33:53.02
  Lap 18 47:09.48 10.8mph 8.50000 19:21:02.50
  Lap 19 44:48.13 11.4mph 8.50000 20:05:50.63
  Lap 20 53:43.71 9.49mph 8.50000 20:59:34.34
  Lap 21 2:22:20.16 3.58mph 8.50000 23:21:54.50
 
3 Big Pig Racing (Wills/Green) 101   15   10.6mph 127.50000 12:02:40.66
  Lap 1 59:06.90 8.63mph 8.50000 59:06.90
  Lap 2 48:36.54 10.5mph 8.50000 1:47:43.44
  Lap 3 42:39.29 12.0mph 8.50000 2:30:22.73
  Lap 4 43:05.51 11.8mph 8.50000 3:13:28.24
  Lap 5 49:14.43 10.4mph 8.50000 4:02:42.67
  Lap 6 52:28.09 9.72mph 8.50000 4:55:10.76
  Lap 7 42:14.47 12.1mph 8.50000 5:37:25.23
  Lap 8 42:41.42 11.9mph 8.50000 6:20:06.65
  Lap 9 53:33.55 9.52mph 8.50000 7:13:40.20
  Lap 10 41:39.29 12.2mph 8.50000 7:55:19.49
  Lap 11 51:52.42 9.83mph 8.50000 8:47:11.91
  Lap 12 44:43.38 11.4mph 8.50000 9:31:55.29
  Lap 13 56:09.10 9.08mph 8.50000 10:28:04.39
  Lap 14 45:24.52 11.2mph 8.50000 11:13:28.91
  Lap 15 49:11.75 10.4mph 8.50000 12:02:40.66
24 Hour 2 Person Mixed MTB Team
Mixed 0-99
Place Name Team Bib No Gender/Age Laps Time Pace Distance Total Time
1 Ride Me All Night 116   24   8.66mph 204.00000 23:33:57.98
  Lap 1 57:55.00 8.81mph 8.50000 57:55.00
  Lap 2 48:15.89 10.6mph 8.50000 1:46:10.89
  Lap 3 46:51.27 10.9mph 8.50000 2:33:02.16
  Lap 4 48:49.23 10.4mph 8.50000 3:21:51.39
  Lap 5 47:59.08 10.6mph 8.50000 4:09:50.47
  Lap 6 49:53.28 10.2mph 8.50000 4:59:43.75
  Lap 7 49:00.36 10.4mph 8.50000 5:48:44.11
  Lap 8 50:25.91 10.1mph 8.50000 6:39:10.02
  Lap 9 47:45.23 10.7mph 8.50000 7:26:55.25
  Lap 10 49:18.86 10.3mph 8.50000 8:16:14.11
  Lap 11 48:00.01 10.6mph 8.50000 9:04:14.12
  Lap 12 52:00.84 9.81mph 8.50000 9:56:14.96
  Lap 13 1:02:54.99 8.11mph 8.50000 10:59:09.95
  Lap 14 1:18:37.23 6.49mph 8.50000 12:17:47.18
  Lap 15 1:28:35.97 5.76mph 8.50000 13:46:23.15
  Lap 16 1:17:47.64 6.56mph 8.50000 15:04:10.79
  Lap 17 1:13:27.05 6.94mph 8.50000 16:17:37.84
  Lap 18 53:56.02 9.46mph 8.50000 17:11:33.86
  Lap 19 1:44:19.86 4.89mph 8.50000 18:55:53.72
  Lap 20 54:34.16 9.35mph 8.50000 19:50:27.88
  Lap 21 49:28.53 10.3mph 8.50000 20:39:56.41
  Lap 22 52:40.88 9.68mph 8.50000 21:32:37.29
  Lap 23 53:40.35 9.50mph 8.50000 22:26:17.64
  Lap 24 1:07:40.34 7.54mph 8.50000 23:33:57.98
 
2 Old Shoes 117   17   6.53mph 144.50000 22:07:11.66
  Lap 1 1:01:40.19 8.27mph 8.50000 1:01:40.19
  Lap 2 49:57.24 10.2mph 8.50000 1:51:37.43
  Lap 3 52:25.56 9.73mph 8.50000 2:44:02.99
  Lap 4 51:06.30 10.0mph 8.50000 3:35:09.29
  Lap 5 51:39.82 9.87mph 8.50000 4:26:49.11
  Lap 6 53:23.86 9.55mph 8.50000 5:20:12.97
  Lap 7 52:53.88 9.64mph 8.50000 6:13:06.85
  Lap 8 53:46.43 9.48mph 8.50000 7:06:53.28
  Lap 9 54:36.43 9.34mph 8.50000 8:01:29.71
  Lap 10 58:33.65 8.71mph 8.50000 9:00:03.36
  Lap 11 1:34:13.30 5.41mph 8.50000 10:34:16.66
  Lap 12 1:26:06.59 5.92mph 8.50000 12:00:23.25
  Lap 13 2:15:10.43 3.77mph 8.50000 14:15:33.68
  Lap 14 1:34:47.31 5.38mph 8.50000 15:50:20.99
  Lap 15 58:25.50 8.73mph 8.50000 16:48:46.49
  Lap 16 1:17:45.04 6.56mph 8.50000 18:06:31.53
  Lap 17 4:00:40.13 2.12mph 8.50000 22:07:11.66
12 Hour MM MTB Team
Male 99 and Under
Place Name Team Bib No Gender/Age Laps Time Pace Distance Total Time
1 Team ANB 217   9   7.05mph 76.50000 10:50:52.03
  Lap 1 45:10.71 11.3mph 8.50000 45:10.71
  Lap 2 42:29.54 12.0mph 8.50000 1:27:40.25
  Lap 3 38:23.76 13.3mph 8.50000 2:06:04.01
  Lap 4 41:38.63 12.2mph 8.50000 2:47:42.64
  Lap 5 37:43.02 13.5mph 8.50000 3:25:25.66
  Lap 6 5:00:06.73 1.70mph 8.50000 8:25:32.39
  Lap 7 1:08:12.43 7.48mph 8.50000 9:33:44.82
  Lap 8 41:16.99 12.4mph 8.50000 10:15:01.81
  Lap 9 35:50.22 14.2mph 8.50000 10:50:52.03
24 Hour 2 Person Mixed SS MTB Team
Male 99 and Under
Place Name Team Bib No Gender/Age Laps Time Pace Distance Total Time
1 Kicking Cancer'_a$$_big Pig     10   3.64mph 85.00000 23:21:21.04
  Lap 1 1:19:18.86 6.43mph 8.50000 1:19:18.86
  Lap 2 49:47.40 10.2mph 8.50000 2:09:06.26
  Lap 3 51:40.83 9.87mph 8.50000 3:00:47.09
  Lap 4 1:09:24.16 7.35mph 8.50000 4:10:11.25
  Lap 5 56:21.45 9.05mph 8.50000 5:06:32.70
  Lap 6 1:55:17.05 4.42mph 8.50000 7:01:49.75
  Lap 7 56:54.91 8.96mph 8.50000 7:58:44.66
  Lap 8 13:37:17.03 0.62mph 8.50000 21:36:01.69
  Lap 9 49:20.87 10.3mph 8.50000 22:25:22.56
  Lap 10 55:58.48 9.11mph 8.50000 23:21:21.04
12 Hour MMMM MTB Team
Male 99 and Under
Place Name Team Bib No Gender/Age Laps Time Pace Distance Total Time
1 Carney Crush     12   6:24/M 102.00000 10:53:20.90
  Lap 1 47:09.40 5:33/M 8.50000 47:09.40
  Lap 2 36:33.61 4:18/M 8.50000 1:23:43.01
  Lap 3 39:05.93 4:36/M 8.50000 2:02:48.94
  Lap 4 53:37.62 6:19/M 8.50000 2:56:26.56
  Lap 5 39:36.69 4:40/M 8.50000 3:36:03.25
  Lap 6 1:17:29.45 9:07/M 8.50000 4:53:32.70
  Lap 7 36:16.11 4:16/M 8.50000 5:29:48.81
  Lap 8 1:12:17.89 8:30/M 8.50000 6:42:06.70
  Lap 9 53:25.84 6:17/M 8.50000 7:35:32.54
  Lap 10 1:09:53.96 8:13/M 8.50000 8:45:26.50
  Lap 11 58:45.10 6:55/M 8.50000 9:44:11.60
  Lap 12 1:09:09.30 8:08/M 8.50000 10:53:20.90

Results Question | Race Website

Results Powered By: